                ,  0.290,  0.386,  0.483,  0.580,  0.676,  0.773,  0.869,  0.966,  1.063,  1.159,  1.256,  1.352,  1.449,  1.545,  1.642,  1.739,  1.835,  1.932,  2.028,  2.125,  2.222,  2.318,  2.415,  2.511,  2.608,  2.705,  2.801,  2.898,  2.994,  3.091,  3.188,  3.284,  3.381,  3.477,  3.574,  3.671,  3.767,  3.864,  3.960,  4.057,  4.153,  4.250,  4.347,  4.443,  4.540,  4.636,  4.733,  4.830,  4.926,  5.023,  5.119,  5.216,  5.313,  5.409,  5.506,  5.602,  5.699,  5.796
2000/12/02 00:00,  999.0,  999.0,  999.0,  999.0,    0.5,  999.0,  999.0,    2.7,    2.8,    2.8,    0.5,    2.3,  999.0,    0.5,  999.0,  999.0,  999.0,  999.0,  999.0,  999.0,  999.0,  999.0,  999.0,  999.0,  999.0,  999.0,  999.0,  999.0,  999.0,  999.0,  999.0,  999.0,  999.0,  999.0,  999.0,  999.0,  999.0,  999.0,  999.0,  999.0,  999.0,  999.0,  999.0,  999.0,  999.0,  999.0,  999.0,  999.0,  999.0,  999.0,  999.0,  999.0,  999.0,  999.0,  999.0,  999.0,  999.0,  999.0
2000/12/02 00:10,  999.0,    3.0,    0.5,    0.4,    0.7,   -0.5,    1.2,    2.2,    2.2,    1.7,    1.8,    3.3,    1.8,    1.4,    2.0,    2.7,    6.3,  999.0,  999.0,  999.0,  999.0,  999.0,  999.0,  999.0,  999.0,  999.0,  999.0,  999.0,  999.0,  999.0,  999.0,  999.0,  999.0,    0.8,  999.0,  999.0,    0.7,  999.0,    0.2,  999.0,    0.1,   -0.5,  999.0,  999.0,   -0.6,    1.1,  999.0,  999.0,  999.0,    1.3,    0.7,    0.4,    0.7,  999.0,  999.0,    0.4,    0.6,    0.7
2000/12/02 00:20,  999.0,  999.0,    0.2,    0.7,    1.9,    2.5,    2.8,    2.7,    1.7,    3.7,    2.7,    0.7,    1.8,    2.6,    0.9,    3.5,  999.0,  999.0,  999.0,  999.0,  999.0,  999.0,  999.0,  999.0,  999.0,  999.0,  999.0,  999.0,   36.5,   37.4,    0.8,  999.0,   20.9,   41.8,   17.8,   31.9,   21.3,    0.6,   41.9,   24.9,   41.8,   42.0,   21.1,   33.2,   21.1,   23.1,   14.3,    2.5,   16.7,   18.6,   20.0,   20.8,   18.6,   16.4,   15.0,   21.4,   21.3,    0.6
2000/12/02 00:30,  999.0,  999.0,  999.0,  999.0,    0.8,    1.2,    3.2,    4.6,    0.8,    0.5,    0.8,   -0.3,  999.0,  999.0,  999.0,  999.0,    7.0,  999.0,    7.6,  999.0,  999.0,  999.0,  999.0,  999.0,  999.0,  999.0,  999.0,  999.0,   33.1,   34.7,   35.7,  999.0,   37.8,   37.1,   37.9,   38.1,  999.0,   40.7,   41.1,   42.1,   41.9,   42.5,   42.2,   41.9,   42.8,   42.3,   43.2,   41.9,   42.1,   42.0,   41.8,   42.3,   42.1,   41.8,   42.1,   41.6,   42.2,   41.6
2000/12/02 00:40,  999.0,    0.8,    0.5,    0.7,    1.2,    2.0,    2.2,  999.0,  999.0,    0.4,    2.3,    1.8,  999.0,   -1.1,  999.0,    3.5,  999.0,  999.0,  999.0,  999.0,  999.0,  999.0,  999.0,  999.0,  999.0,  999.0,  999.0,  999.0,   35.5,   36.3,   40.0,   39.8,  999.0,  999.0,   41.4,   41.8,   42.3,   41.7,   41.2,   41.4,   41.6,   42.1,   41.8,   41.4,   41.5,   41.7,   41.5,   41.6,   41.7,   41.5,   41.7,   40.6,   42.2,   41.6,   41.4,   41.5,   41.4,   41.3
2000/12/02 00:50,  999.0,    2.3,   -0.3,   -0.7,  999.0,    0.6,   -0.9,    0.7,   -0.3,   -1.7,   -0.5,    0.1,    1.6,    0.8,  999.0,    3.1,    4.8,  999.0,  999.0,  999.0,  999.0,  999.0,  999.0,  999.0,  999.0,  999.0,  999.0,   39.8,   40.9,   41.3,   41.6,   41.8,   42.0,   41.5,   41.8,   42.2,   42.2,   41.8,   41.8,   42.0,   41.6,   42.3,   41.8,   41.9,   41.5,   41.7,   41.7,   41.7,   42.2,   41.3,   41.8,   41.7,   41.4,   42.3,  999.0,   42.3,   42.3,   42.2
2000/12/02 01:00,  999.0,   -2.6,   -2.2,  999.0,   -1.4,   -0.4,   -0.9,   -0.2,    0.0,    0.2,    0.4,   -1.0,    3.4,    2.6,    1.1,  999.0,  999.0,  999.0,  999.0,  999.0,  999.0,  999.0,  999.0,  999.0,  999.0,  999.0,  999.0,   41.0,   41.8,   41.5,   42.0,   42.5,   42.0,   41.6,   42.0,   41.6,   41.5,   41.8,   41.7,   41.2,   41.7,   42.3,  999.0,   41.6,   41.9,   41.8,   41.8,   41.7,   42.2,   42.0,   41.6,   41.7,   41.7,   41.9,   41.3,   41.2,   42.1,   41.9
2000/12/02 01:10,  999.0,  999.0,  999.0,  999.0,  999.0,   -0.5,    2.3,    0.7,   -0.5,   -1.2,   -1.4,   -2.6,  999.0,    2.3,  999.0,  999.0,  999.0,  999.0,  999.0,  999.0,  999.0,  999.0,  999.0,  999.0,  999.0,  999.0,  999.0,  999.0,  999.0,  999.0,  999.0,  999.0,  999.0,  999.0,  999.0,  999.0,  999.0,  999.0,  999.0,  999.0,  999.0,  999.0,  999.0,  999.0,  999.0,  999.0,  999.0,  999.0,  999.0,  999.0,  999.0,  999.0,  999.0,  999.0,  999.0,  999.0,  999.0,  999.0
2000/12/02 01:20,  999.0,  999.0,   -1.7,  999.0,  999.0,    1.7,    3.9,    3.4,    4.8,    2.6,    1.4,    1.3,    1.1,    2.1,    0.7,  999.0,    3.2,  999.0,  999.0,  999.0,  999.0,  999.0,  999.0,  999.0,  999.0,  999.0,  999.0,   19.2,  999.0,  999.0,   30.8,   19.4,  999.0,  999.0,   26.0,  999.0,  999.0,   26.6,   26.7,   29.9,   36.8,   32.3,   41.7,   38.5,   40.7,   29.3,   41.6,   40.6,   41.3,   41.7,   41.9,   42.1,   42.1,   42.0,   41.4,   41.7,   41.9,   41.8
2000/12/02 01:30,  999.0,  999.0,  999.0,  999.0,  999.0,    7.4,  999.0,  999.0,    5.5,    3.9,    2.1,    3.8,    3.3,    3.0,    0.5,  999.0,    5.5,  999.0,  999.0,  999.0,  999.0,  999.0,  999.0,  999.0,  999.0,  999.0,  999.0,  999.0,  999.0,   31.4,   32.3,   33.0,   34.2,   17.4,   35.8,    0.5,  999.0,    7.3,  999.0,   24.7,   39.7,   40.8,   41.5,   11.8,   29.3,   41.8,   42.0,   42.0,   41.9,   31.6,   31.7,   41.6,   40.5,  999.0,    5.2,   41.5,   31.6,   31.9
2000/12/02 01:40,  999.0,  999.0,    5.3,    4.1,    4.2,    8.1,    5.7,    3.0,    5.3,    3.5,    4.4,    2.6,    2.9,    2.1,   -1.0,  999.0,  999.0,  999.0,  999.0,  999.0,  999.0,  999.0,  999.0,  999.0,  999.0,  999.0,  999.0,  999.0,  999.0,  999.0,  999.0,  999.0,  999.0,  999.0,  999.0,  999.0,  999.0,  999.0,  999.0,  999.0,  999.0,  999.0,  999.0,  999.0,  999.0,  999.0,  999.0,  999.0,  999.0,  999.0,  999.0,  999.0,  999.0,  999.0,  999.0,  999.0,  999.0,  999.0
2000/12/02 01:50,  999.0,  999.0,    1.9,    0.6,    2.4,  999.0,    0.8,    1.1,    0.8,    4.5,    4.2,    5.4,    5.1,    1.6,    3.0,    1.2,    2.6,  999.0,  999.0,  999.0,  999.0,  999.0,  999.0,  999.0,  999.0,  999.0,  999.0,  999.0,  999.0,  999.0,  999.0,  999.0,  999.0,  999.0,  999.0,  999.0,  999.0,  999.0,  999.0,  999.0,  999.0,  999.0,  999.0,  999.0,  999.0,  999.0,  999.0,  999.0,  999.0,  999.0,  999.0,  999.0,  999.0,  999.0,  999.0,  999.0,  999.0,  999.0
2000/12/02 02:00,  999.0,    2.1,    2.2,    2.9,  999.0,  999.0,    3.4,    3.2,    2.1,    3.3,    3.6,    2.6,    1.8,    1.8,    1.6,    4.3,  999.0,  999.0,  999.0,  999.0,  999.0,  999.0,  999.0,  999.0,   38.3,   35.8,   33.6,  999.0,   28.4,  999.0,  999.0,  999.0,  999.0,   15.3,  999.0,   10.4,  999.0,    5.4,  999.0,  999.0,   36.0,   41.5,    0.6,   42.7,   41.6,  999.0,   20.9,   37.6,   39.9,  999.0,   41.8,   41.9,   21.1,   42.4,   42.8,   42.5,   42.1,    1.2
2000/12/02 02:10,  999.0,  999.0,  999.0,    4.4,    5.1,  999.0,    5.5,  999.0,    2.9,    7.0,    4.2,    5.7,    1.8,  999.0,  999.0,  999.0,  999.0,    3.1,  999.0,  999.0,   14.3,  999.0,  999.0,  999.0,  999.0,  999.0,  999.0,  999.0,  999.0,  999.0,  999.0,   37.9,  999.0,  999.0,  999.0,   41.3,  999.0,   41.0,   42.3,  999.0,  999.0,   41.5,  999.0,   41.4,  999.0,   42.6,   41.9,   42.1,   41.9,  999.0,   41.6,  999.0,   41.7,   42.3,   42.0,   41.7,  999.0,  999.0
2000/12/02 02:20,  999.0,  999.0,    2.6,    2.7,    2.5,    4.3,    5.1,  999.0,    2.3,    3.2,    2.7,    4.9,    1.0,    4.0,  999.0,  999.0,  999.0,  999.0,  999.0,  999.0,  999.0,  999.0,  999.0,  999.0,   31.9,   34.5,   37.5,   36.6,   40.0,   38.6,   42.1,   39.6,   41.1,  999.0,   42.7,   42.0,   41.8,   42.3,   42.4,   41.9,  999.0,   42.1,   42.2,   41.7,   42.1,   41.6,   41.4,   41.6,   41.9,  999.0,   42.0,   42.3,   41.8,  999.0,   42.5,   42.2,   41.5,   42.2
2000/12/02 02:30,  999.0,  999.0,    0.6,    1.6,    1.6,    2.6,  999.0,  999.0,    1.1,    1.4,    2.1,    1.2,    2.8,    3.8,    4.8,  999.0,  999.0,  999.0,  999.0,  999.0,  999.0,  999.0,  999.0,  999.0,   30.5,   31.2,   32.0,   35.9,  999.0,   36.1,   38.8,   39.8,  999.0,   41.6,   41.7,   42.0,   41.8,   41.6,   41.6,   41.7,   41.1,   41.6,   41.4,   41.5,   41.0,   42.5,   42.8,   41.8,  999.0,   40.9,   41.7,   41.2,   41.8,   41.2,  999.0,  999.0,   41.6,   42.1
2000/12/02 02:40,  999.0,    3.7,    1.1,    1.1,    2.9,    4.6,  999.0,  999.0,  999.0,    0.8,    0.9,    1.3,    2.3,    3.2,    3.6,  999.0,    5.7,    5.5,  999.0,  999.0,  999.0,  999.0,  999.0,  999.0,  999.0,   29.7,   32.7,   32.3,   33.3,   34.9,   35.4,  999.0,   37.3,   40.7,   40.7,   41.6,   40.9,   41.8,   41.2,   42.3,   41.7,   42.1,   41.6,   42.3,   42.1,   42.1,   41.6,   41.5,  999.0,   41.9,   41.8,   41.5,  999.0,   42.0,   42.1,   42.8,   41.7,   42.4
2000/12/02 02:50,  999.0,  999.0,    0.4,    0.0,    0.1,    2.2,    5.8,  999.0,  999.0,    0.4,    2.3,    1.2,    1.9,    1.5,    2.8,  999.0,  999.0,  999.0,  999.0,  999.0,  999.0,  999.0,  999.0,  999.0,  999.0,  999.0,   33.1,   33.8,   34.7,   35.9,   37.9,   37.9,   38.6,   39.7,   40.3,   41.5,   41.3,   41.6,   41.9,   41.5,   41.7,   41.9,   41.4,   41.8,   42.0,   42.0,   41.7,   42.0,   41.7,   41.4,   42.2,   42.3,   41.8,   42.1,   41.9,   41.0,   41.5,   42.1
2000/12/02 03:00,  999.0,   -0.1,    0.4,   -0.8,  999.0,  999.0,  999.0,    2.0,  999.0,    1.9,    0.2,    0.0,    2.1,    3.1,    2.7,  999.0,    2.9,  999.0,  999.0,  999.0,  999.0,  999.0,  999.0,  999.0,  999.0,  999.0,   32.7,   34.6,   35.7,   36.8,   37.7,   38.6,   39.2,   41.5,   41.5,   42.3,   42.6,  999.0,   42.1,   42.8,   41.9,   42.1,   42.1,   41.9,   41.9,   41.6,   42.3,   41.6,   41.6,   41.2,   41.6,   41.7,   41.7,   41.6,   41.9,   42.2,   41.7,   41.8
2000/12/02 03:10,  999.0,  999.0,  999.0,   -0.0,    0.4,    1.9,  999.0,    3.7,    0.7,    3.4,    3.0,    1.9,    2.0,    2.3,  999.0,  999.0,  999.0,  999.0,  999.0,  999.0,  999.0,  999.0,  999.0,  999.0,   31.6,   32.8,   36.2,   34.8,   35.7,   36.9,   40.2,   40.3,   41.8,   41.9,   43.0,   41.7,   42.4,  999.0,   41.9,   41.8,  999.0,   41.5,   41.7,   42.3,   41.6,   41.9,   41.4,   41.6,   41.5,   40.7,   41.9,   41.3,   41.7,   41.8,   41.7,  999.0,   42.1,   41.8
2000/12/02 03:20,  999.0,    2.0,    1.3,    2.8,    1.1,    0.4,    4.0,    4.9,    0.6,    0.9,    0.6,    2.4,    1.8,    1.7,  999.0,  999.0,  999.0,  999.0,  999.0,  999.0,  999.0,  999.0,   26.5,   28.6,   29.0,   30.2,   31.8,  999.0,  999.0,   34.3,   34.9,   35.8,   35.8,   38.2,   38.7,   39.1,   41.9,   41.2,   41.8,  999.0,   41.8,   41.5,   41.6,   42.0,   41.9,   42.1,  999.0,   41.8,   41.9,   41.8,   41.8,   41.8,   41.4,  999.0,   41.8,   41.8,  999.0,   40.8
2000/12/02 03:30,  999.0,  999.0,  999.0,    0.5,    3.9,    0.5,    0.5,    0.5,    2.3,   -1.0,  999.0,    3.9,    4.0,    0.9,  999.0,  999.0,  999.0,    5.1,  999.0,  999.0,  999.0,  999.0,    2.3,  999.0,   33.2,    0.8,   34.0,   37.1,   17.8,   24.6,   38.1,  999.0,  999.0,  999.0,   21.5,   42.4,   41.3,  999.0,    0.7,   28.3,   21.1,  999.0,  999.0,   21.1,   21.3,   41.9,   28.3,   41.8,   41.5,  999.0,   41.5,    0.7,   41.8,   41.7,    0.6,  999.0,   41.6,   20.9
2000/12/02 03:40,  999.0,    0.4,    1.4,    2.1,  999.0,  999.0,    9.0,  999.0,  999.0,  999.0,    3.7,    3.9,    2.0,   -0.2,    4.1,  999.0,  999.0,  999.0,  999.0,  999.0,  999.0,   29.8,   31.3,   33.0,   33.1,   34.4,   36.5,   36.8,   36.5,   39.6,   41.6,   39.7,   41.4,   42.0,   41.6,   42.0,   42.2,   41.6,   41.4,  999.0,   41.0,   41.7,   42.1,   42.1,   42.5,   41.7,  999.0,   41.1,   42.1,   41.9,   42.1,   41.7,   41.8,   41.9,   42.0,   42.0,   42.0,  999.0
2000/12/02 03:50,  999.0,  999.0,    0.7,    2.5,    0.9,    4.1,    6.8,    1.0,  999.0,  999.0,   -0.2,    4.7,    1.5,    3.1,  999.0,  999.0,  999.0,  999.0,  999.0,  999.0,  999.0,   28.6,   28.4,   29.9,   30.4,   32.3,   32.0,   35.7,   38.0,   35.3,   37.6,   38.7,   40.4,  999.0,   41.3,   41.4,   41.7,   42.0,   42.0,   42.0,   42.0,   42.4,   41.6,   41.6,   42.0,   42.7,   41.8,   42.1,   42.0,   41.7,   41.7,   41.8,   41.9,   42.0,   41.8,   41.7,   41.6,   41.4
2000/12/02 04:00,  999.0,    2.8,  999.0,    1.7,    1.7,    4.5,    6.3,    9.5,    8.2,    1.6,    4.2,    5.8,    5.3,   -2.1,  999.0,  999.0,  999.0,  999.0,  999.0,  999.0,  999.0,   28.8,   25.6,   17.5,   35.8,  999.0,   15.3,   34.3,   32.1,   20.2,   17.5,   35.2,   25.9,   28.1,  999.0,   31.2,   37.3,   41.1,   40.1,   41.7,   24.2,   38.6,   39.0,   41.9,  999.0,   24.9,   41.0,   41.5,   42.3,   41.5,   40.1,   29.2,   29.5,   42.3,   42.0,  999.0,   38.2,   33.3
2000/12/02 04:10,  999.0,  999.0,  999.0,  999.0,  999.0,    1.6,  999.0,    1.8,    1.1,    3.8,    2.5,    1.0,    5.2,    5.7,  999.0,    6.5,  999.0,  999.0,  999.0,  999.0,  999.0,  999.0,  999.0,  999.0,  999.0,   32.8,  999.0,   36.0,   37.9,   39.8,   20.8,    0.2,  999.0,   20.9,    0.8,   20.9,    1.0,    0.5,   21.5,   21.2,   21.4,    1.0,    1.8,    0.8,   42.0,   21.1,   21.4,   20.8,   21.1,   42.0,   41.6,  999.0,   41.9,  999.0,  999.0,  999.0,  999.0,  999.0
2000/12/02 04:20,  999.0,  999.0,  999.0,  999.0,   -0.9,  999.0,  999.0,    0.5,  999.0,  999.0,   -2.2,    2.6,   -0.3,  999.0,  999.0,    1.1,    2.1,  999.0,  999.0,  999.0,  999.0,  999.0,  999.0,  999.0,  999.0,  999.0,  999.0,  999.0,  999.0,  999.0,  999.0,  999.0,  999.0,  999.0,  999.0,  999.0,  999.0,  999.0,  999.0,  999.0,  999.0,  999.0,  999.0,  999.0,  999.0,  999.0,  999.0,  999.0,  999.0,  999.0,  999.0,  999.0,  999.0,  999.0,  999.0,  999.0,  999.0,  999.0
2000/12/02 04:30,  999.0,  999.0,  999.0,   -4.0,   -1.5,  999.0,  999.0,    1.7,   -6.2,    1.5,   -4.0,  999.0,   -4.1,   -4.4,   -0.0,  999.0,  999.0,  999.0,  999.0,  999.0,  999.0,  999.0,  999.0,  999.0,    7.0,  999.0,  999.0,  999.0,    5.6,  999.0,  999.0,    4.1,    3.7,  999.0,  999.0,  999.0,  999.0,    1.2,  999.0,    0.3,  999.0,  999.0,  999.0,    1.4,  999.0,  999.0,  999.0,  999.0,    0.6,    1.0,  999.0,  999.0,    0.4,    0.5,  999.0,    0.3,  999.0,  999.0
2000/12/02 04:40,  999.0,   -2.3,   -3.0,  999.0,  999.0,   -3.5,  999.0,    3.2,    3.4,  999.0,   -2.4,   -1.1,   -3.2,   -1.9,  999.0,  999.0,  999.0,  999.0,    7.5,  999.0,  999.0,  999.0,  999.0,  999.0,  999.0,  999.0,  999.0,  999.0,  999.0,  999.0,  999.0,  999.0,  999.0,  999.0,  999.0,  999.0,  999.0,  999.0,  999.0,  999.0,  999.0,  999.0,  999.0,  999.0,  999.0,  999.0,  999.0,  999.0,  999.0,  999.0,  999.0,  999.0,  999.0,  999.0,  999.0,  999.0,  999.0,  999.0
2000/12/02 04:50,  999.0,    1.6,   -0.9,   -1.6,  999.0,  999.0,  999.0,  999.0,  999.0,  999.0,    2.9,    3.7,  999.0,    1.7,  999.0,  999.0,  999.0,  999.0,  999.0,  999.0,  999.0,  999.0,  999.0,  999.0,  999.0,  999.0,  999.0,  999.0,  999.0,  999.0,  999.0,  999.0,  999.0,  999.0,  999.0,  999.0,  999.0,  999.0,  999.0,  999.0,  999.0,  999.0,  999.0,  999.0,  999.0,  999.0,  999.0,  999.0,  999.0,  999.0,  999.0,  999.0,  999.0,  999.0,  999.0,  999.0,  999.0,  999.0
2000/12/02 05:00,  999.0,  999.0,  999.0,  999.0,  999.0,    1.0,  999.0,  999.0,  999.0,    1.1,  999.0,  999.0,  999.0,  -11.3,   -5.9,  999.0,  999.0,    2.6,  999.0,  999.0,  999.0,  999.0,  999.0,  999.0,  999.0,  999.0,  999.0,  999.0,  999.0,  999.0,  999.0,  999.0,  999.0,  999.0,  999.0,  999.0,  999.0,  999.0,  999.0,  999.0,  999.0,  999.0,  999.0,  999.0,  999.0,  999.0,  999.0,  999.0,  999.0,  999.0,  999.0,  999.0,  999.0,  999.0,  999.0,  999.0,  999.0,  999.0
2000/12/02 05:10,  999.0,    1.8,    2.6,  999.0,  999.0,  999.0,  999.0,  999.0,  999.0,  999.0,  999.0,  999.0,  999.0,   -8.6,  999.0,  999.0,  999.0,  -17.4,  999.0,  999.0,  999.0,  999.0,  999.0,  999.0,  999.0,  999.0,  999.0,  999.0,  999.0,  999.0,  999.0,  999.0,  999.0,  999.0,  999.0,  999.0,  999.0,  999.0,  999.0,  999.0,  999.0,  999.0,  999.0,  999.0,  999.0,  999.0,  999.0,  999.0,  999.0,  999.0,  999.0,  999.0,  999.0,  999.0,  999.0,  999.0,  999.0,  999.0
2000/12/02 05:20,  999.0,    2.9,    2.7,  999.0,   -0.8,   -1.1,  999.0,  999.0,  999.0,    1.1,    2.4,    2.8,    3.7,    4.5,  999.0,  999.0,  999.0,  999.0,   -6.4,  999.0,  999.0,  999.0,  999.0,  999.0,    2.0,  999.0,    0.5,    0.8,   -0.2,    0.7,  999.0,  999.0,  999.0,  999.0,    0.3,  999.0,  999.0,   -0.3,  999.0,  999.0,    1.3,  999.0,  999.0,    0.1,    0.6,  999.0,    0.9,    0.7,  999.0,    0.5,  999.0,  999.0,  999.0,  999.0,  999.0,  999.0,  999.0,  999.0
2000/12/02 05:30,  999.0,  999.0,  999.0,  999.0,    0.1,    0.7,  999.0,  999.0,  999.0,   -0.0,    0.8,    2.3,    2.7,    3.2,  999.0,  999.0,  999.0,  999.0,  999.0,  999.0,  999.0,  999.0,  999.0,  999.0,  999.0,  999.0,  999.0,  999.0,  999.0,  999.0,  999.0,  999.0,  999.0,  999.0,  999.0,  999.0,  999.0,  999.0,  999.0,  999.0,  999.0,  999.0,  999.0,  999.0,  999.0,  999.0,  999.0,  999.0,  999.0,  999.0,  999.0,  999.0,  999.0,  999.0,  999.0,  999.0,  999.0,  999.0
2000/12/02 05:40,  999.0,  999.0,    2.5,    1.6,   -2.9,   -0.8,  999.0,  999.0,   -1.7,    0.0,    0.7,    1.1,    2.6,    3.7,    0.4,  999.0,  999.0,    1.6,  999.0,  999.0,  999.0,  999.0,  999.0,  999.0,  999.0,  999.0,  999.0,  999.0,  999.0,  999.0,  999.0,  999.0,  999.0,  999.0,  999.0,  999.0,  999.0,  999.0,  999.0,  999.0,  999.0,  999.0,  999.0,  999.0,  999.0,  999.0,  999.0,  999.0,  999.0,  999.0,  999.0,  999.0,  999.0,  999.0,  999.0,  999.0,  999.0,  999.0
2000/12/02 05:50,  999.0,  999.0,  999.0,  999.0,    0.6,   -0.7,  999.0,   -2.0,   -1.1,    0.8,    0.9,    1.7,    2.6,    3.7,  999.0,  999.0,  999.0,    5.5,  999.0,  999.0,  999.0,  999.0,  999.0,  999.0,  999.0,  999.0,  999.0,  999.0,  999.0,  999.0,  999.0,  999.0,  999.0,  999.0,  999.0,  999.0,  999.0,  999.0,  999.0,  999.0,  999.0,  999.0,  999.0,  999.0,  999.0,  999.0,  999.0,  999.0,  999.0,  999.0,  999.0,  999.0,  999.0,  999.0,  999.0,  999.0,  999.0,  999.0
2000/12/02 06:00,  999.0,    2.2,    2.7,  999.0,  999.0,    3.3,  999.0,   -5.4,  999.0,   -4.0,   -0.8,    1.1,    2.1,    2.8,  999.0,  999.0,  999.0,    9.7,  999.0,  999.0,  999.0,  999.0,  999.0,  999.0,  999.0,  999.0,  999.0,  999.0,  999.0,  999.0,  999.0,  999.0,  999.0,  999.0,  999.0,  999.0,  999.0,  999.0,  999.0,  999.0,  999.0,  999.0,  999.0,  999.0,  999.0,  999.0,   -0.8,  999.0,  999.0,  999.0,  999.0,  999.0,  999.0,   -0.9,   -0.6,   -0.4,  999.0,  999.0
2000/12/02 06:10,  999.0,  999.0,  999.0,    3.4,  999.0,    2.0,    3.7,    3.0,   -2.4,    3.3,    1.7,    2.3,    2.1,    1.4,   -1.0,  999.0,    3.4,    3.3,    6.6,  999.0,  999.0,  999.0,  999.0,  999.0,  999.0,  999.0,  999.0,  999.0,  999.0,  999.0,  999.0,  999.0,  999.0,  999.0,   42.0,   41.6,   41.9,  999.0,   41.5,   42.3,   42.1,  999.0,  999.0,  999.0,  999.0,  999.0,  999.0,  999.0,  999.0,   41.9,  999.0,  999.0,  999.0,  999.0,  999.0,  999.0,  999.0,   42.6
2000/12/02 06:20,  999.0,  999.0,  999.0,  999.0,  999.0,  999.0,  999.0,  999.0,   -4.7,   -0.4,    2.7,   -1.0,   -1.9,   -2.4,    1.2,  999.0,    0.4,  999.0,  999.0,  999.0,  999.0,  999.0,  999.0,  999.0,  999.0,  999.0,  999.0,  999.0,  999.0,  999.0,  999.0,  999.0,   41.0,  999.0,   42.7,   42.4,  999.0,   -0.1,  -41.9,  -21.6,   42.7,  -42.0,   42.3,   42.5,  -21.8,   -0.6,  -21.6,  -42.0,   42.2,  999.0,  -21.2,    0.6,  999.0,  999.0,  -21.7,   -0.8,   -0.7,  999.0
2000/12/02 06:30,  999.0,  999.0,   -0.3,  999.0,  999.0,  999.0,   -6.7,  999.0,   -2.6,  999.0,    1.2,    1.6,    2.2,    1.7,    1.0,    1.8,   -0.8,  999.0,   -6.0,  999.0,  999.0,  999.0,  999.0,  999.0,  999.0,  999.0,  999.0,  999.0,  999.0,  999.0,  999.0,  999.0,  999.0,  999.0,  999.0,  999.0,  999.0,  999.0,  999.0,  999.0,  999.0,  999.0,  999.0,  999.0,  999.0,  999.0,  999.0,  999.0,  999.0,  999.0,  999.0,  999.0,  999.0,  999.0,  999.0,  999.0,  999.0,  999.0
2000/12/02 06:40,  999.0,  999.0,  999.0,  999.0,  999.0,    0.4,   -3.9,  999.0,  999.0,    2.5,    0.3,    1.4,    2.2,    4.7,  999.0,  999.0,  999.0,  999.0,  999.0,  999.0,   12.0,  999.0,    7.3,    5.5,    2.8,    0.7,  999.0,    0.2,   -0.7,  999.0,  999.0,  999.0,   -4.4,  999.0,    0.4,  -21.4,   -0.6,  -41.8,   -0.8,  -15.0,  999.0,  -21.1,   -0.6,   -0.9,   -1.3,   -0.5,   -0.2,  999.0,   -0.6,   -0.5,  999.0,   -0.8,   -1.2,   -0.6,   -1.6,   -0.6,  999.0,   -1.2
2000/12/02 06:50,  999.0,   -0.3,   -0.3,  999.0,    0.8,    2.7,  999.0,  999.0,  999.0,    0.6,    2.2,    2.1,    3.5,    3.0,    2.1,    2.1,    3.8,    3.9,  999.0,  999.0,   26.3,   29.4,   29.2,  999.0,   32.2,   31.7,   32.8,   34.1,  999.0,  999.0,  999.0,  999.0,  999.0,  999.0,   42.3,  999.0,  999.0,  999.0,  999.0,  999.0,  999.0,  999.0,  999.0,  999.0,  999.0,  999.0,  999.0,  999.0,  999.0,  999.0,  999.0,  999.0,  999.0,  999.0,   41.1,  999.0,   41.3,  999.0
2000/12/02 07:00,  999.0,   -1.9,   -2.0,    0.0,  999.0,  999.0,    0.2,  999.0,    4.3,    5.5,    7.2,   10.3,  999.0,   12.5,   13.8,  999.0,   15.6,   17.0,   19.8,  999.0,  999.0,  999.0,   41.3,  999.0,   41.8,   41.8,   41.8,   42.1,  999.0,   42.2,   42.1,  999.0,  999.0,   42.8,   41.9,  999.0,  999.0,  999.0,  999.0,  999.0,   42.0,  999.0,  999.0,  999.0,   42.2,  999.0,   42.0,  999.0,  999.0,   41.8,   42.1,  999.0,  999.0,   41.7,   42.4,   42.3,   42.0,   42.6
2000/12/02 07:10,  999.0,   -3.2,   -0.0,   -0.1,   -0.5,   -1.6,   -0.5,  999.0,    1.2,   -0.4,   -0.1,    1.6,    3.1,    4.6,    8.2,  999.0,  999.0,  999.0,  999.0,  999.0,  999.0,  999.0,  999.0,  999.0,  999.0,   41.8,   16.7,   32.9,   27.5,   31.4,   30.3,    5.5,    3.7,   28.5,   21.5,   41.5,  999.0,  999.0,    0.6,   42.5,  999.0,   41.9,  999.0,   21.6,   41.4,   25.5,   28.1,   41.3,   41.9,   38.3,   40.4,  999.0,   41.9,   42.4,   42.3,   42.4,   42.6,   42.0
2000/12/02 07:20,  999.0,    1.7,    1.1,    2.3,    1.0,    1.1,    0.2,   -0.1,   -0.2,    0.9,    1.1,    1.6,    1.0,    3.0,  999.0,  999.0,  999.0,  999.0,  999.0,  999.0,  999.0,  999.0,  999.0,  999.0,   34.5,   34.7,   36.9,   39.8,   39.8,   40.4,   41.8,   42.0,   42.1,   28.1,   41.7,   41.3,   42.1,   41.5,   42.4,   42.2,   41.7,   33.5,   27.0,   29.5,   41.9,   29.2,   42.4,   21.8,   41.3,   33.4,   30.7,   41.7,   41.7,   41.8,   41.6,   34.8,   41.7,   41.3
2000/12/02 07:30,  999.0,   -0.0,   -0.6,    0.5,   -0.5,   -1.1,    0.0,   -0.4,    0.2,   -1.4,    1.9,    1.4,    2.5,    1.6,    2.6,    2.8,  999.0,  999.0,  999.0,  999.0,  999.0,  999.0,  999.0,   34.2,  999.0,   37.4,   40.6,   42.2,   41.7,   41.7,   41.6,   41.9,   41.7,   41.8,  999.0,   41.8,   41.8,   41.8,  999.0,   41.5,   42.3,   42.1,   41.5,   41.8,   41.6,   41.3,   41.4,   42.0,   41.7,   41.8,   41.7,   41.8,   41.4,   41.7,   41.2,  999.0,   42.0,   41.4
2000/12/02 07:40,  999.0,   -0.2,   -0.2,   -0.9,   -2.3,   -2.1,   -0.6,    0.6,    0.8,    1.1,    1.8,    2.7,    2.5,    3.1,    2.2,    3.2,    3.1,  999.0,  999.0,  999.0,  999.0,  999.0,   30.2,  999.0,   34.5,  999.0,   39.7,   40.8,   42.4,   42.1,   42.0,   41.6,   41.6,   41.8,   41.9,   42.1,  999.0,   42.0,   41.7,   42.0,   41.6,   41.8,   42.1,   42.1,   41.8,   41.5,   41.8,   41.4,   41.4,   41.8,   41.8,   41.5,   41.9,   42.1,   41.8,   41.4,   41.7,   41.6
2000/12/02 07:50,  999.0,    0.5,   -0.7,   -1.0,   -1.2,    0.1,    0.6,    0.4,    0.5,    0.5,    2.0,    2.6,    3.4,    3.3,    2.2,    3.4,  999.0,  999.0,  999.0,  999.0,  999.0,  999.0,  999.0,  999.0,  999.0,  999.0,  999.0,  999.0,   41.9,   41.7,   41.5,   41.8,   41.7,   41.8,   41.5,   41.6,   41.4,   41.4,   41.6,   41.5,   41.9,   41.4,   41.6,   41.6,   39.6,   41.9,   38.6,   36.0,   37.3,   41.3,   32.5,   18.1,   41.7,   41.3,   41.9,   41.4,   41.3,   41.6
2000/12/02 08:00,  999.0,    0.5,    0.3,    0.2,   -0.1,    0.3,    0.8,    1.8,    1.3,    0.4,  999.0,    1.9,    2.4,    2.6,  999.0,    2.1,  999.0,  999.0,  999.0,  999.0,  999.0,  999.0,  999.0,  999.0,   36.5,   38.0,   40.0,   41.5,   41.4,   42.0,   41.6,   41.6,   41.9,   41.7,   42.0,   41.7,   41.4,   41.9,   41.5,   41.7,   41.7,   41.8,   41.8,   41.8,   41.7,   41.2,   41.5,   41.6,   41.3,   41.8,  999.0,   41.6,   41.8,   42.3,   41.5,   41.2,   42.0,   41.1
2000/12/02 08:10,  999.0,    0.0,   -0.3,    0.6,    0.6,    1.0,    0.7,  999.0,    1.6,  999.0,    1.5,    2.1,    2.9,    4.0,    7.0,    8.7,  999.0,  999.0,  999.0,  999.0,  999.0,  999.0,  999.0,   41.8,   37.2,   41.7,  999.0,   42.1,   42.5,   42.7,   41.2,   41.6,  999.0,   42.6,   42.1,   41.7,  999.0,   37.2,  999.0,   41.8,   41.7,  999.0,   26.0,   35.9,   33.1,   41.3,   38.4,   31.4,   21.2,  999.0,   41.4,  999.0,   30.5,   29.5,    2.5,   11.8,   21.1,    0.7
2000/12/02 08:20,  999.0,    1.7,    0.6,    0.4,    0.4,    1.7,    0.4,    1.3,    1.4,    0.3,    0.9,    1.2,    1.9,    1.5,    4.0,    0.0,    2.6,  999.0,  999.0,   26.8,   27.8,   29.3,   30.0,   31.3,  999.0,  999.0,  999.0,  999.0,  999.0,  999.0,   40.9,   40.9,  999.0,   41.7,  999.0,  999.0,  999.0,  999.0,  999.0,   41.8,   41.8,  999.0,   41.8,   41.9,  999.0,  999.0,  999.0,  999.0,  999.0,  999.0,  999.0,  999.0,  999.0,  999.0,  999.0,  999.0,  999.0,  999.0
2000/12/02 08:30,  999.0,   -0.0,   -1.0,    0.2,    0.2,    0.7,    1.2,    1.5,    1.6,    4.5,    3.1,    2.7,    0.6,    0.2,    0.7,    0.2,    5.0,  999.0,  999.0,  999.0,  999.0,  999.0,  999.0,  999.0,  999.0,  999.0,  999.0,  999.0,  999.0,  999.0,  999.0,  999.0,   -1.0,  999.0,   -1.0,  999.0,   -0.8,  999.0,   -1.1,  999.0,   -0.4,  999.0,   -0.5,  999.0,  999.0,  999.0,  999.0,  999.0,   -0.7,   -1.1,   -0.6,  999.0,   -1.3,   -0.6,   -0.9,   -1.1,  999.0,   -0.7
2000/12/02 08:40,  999.0,    1.6,    0.3,   -0.3,    1.1,    0.3,    0.7,    1.6,    0.6,    1.4,    1.3,    2.8,    1.5,    1.6,    1.4,  999.0,    1.3,    4.0,  999.0,    6.5,    3.7,    1.1,    0.7,    1.0,  999.0,    0.9,  999.0,  999.0,  999.0,  999.0,  999.0,  999.0,   -0.7,  999.0,  999.0,  999.0,   -0.2,  999.0,  999.0,  999.0,  999.0,  999.0,   -0.0,  999.0,  999.0,  999.0,  999.0,  999.0,   -0.3,  -21.0,  -21.3,  -21.5,  -21.2,  -21.6,  -20.8,  -41.4,  -41.7,  -41.3
2000/12/02 08:50,  999.0,    0.8,    0.5,    0.7,    1.1,    0.2,   -0.2,  999.0,   -1.3,    1.9,    0.9,    1.6,    0.9,    0.8,    2.5,  999.0,    2.4,  999.0,  999.0,   15.6,  999.0,    7.9,    4.4,  999.0,   18.6,  999.0,  999.0,    1.1,   -9.5,    0.2,  999.0,  -41.7,  -40.8,  -28.2,  -41.8,  999.0,  -41.4,  -41.5,  -41.5,  -41.7,  -20.9,  -41.7,  -27.7,  999.0,  999.0,  -41.6,  -27.9,  -41.3,  -28.0,  -41.8,  -27.8,  -21.2,  -27.3,  -28.0,  -27.8,  -41.8,  -28.2,  -28.3
2000/12/02 09:00,  999.0,  999.0,  999.0,  999.0,    3.4,    2.5,    1.2,    1.0,    1.8,    2.9,    1.6,    1.5,    1.8,    1.8,  999.0,    1.8,  999.0,  999.0,  999.0,  999.0,  999.0,   -0.7,  999.0,   -9.0,  999.0,  -15.5,  -20.8,  -26.7,  -25.6,  -16.7,  -24.1,  -23.6,  -20.8,  -14.5,  -20.7,  -14.4,  -14.4,  -14.2,  -21.1,   -0.9,  -14.3,  -14.4,  -14.7,   -0.6,  -14.4,   -0.8,   -0.7,  -14.4,  -15.0,  -14.4,  -14.2,  -14.2,  -21.3,   -1.0,  -21.1,  -14.6,   -0.3,   -0.9
2000/12/02 09:10,  999.0,  999.0,  999.0,  999.0,   -0.6,    0.9,  999.0,    0.8,    1.8,    2.0,    1.8,    2.2,    3.1,    4.1,  999.0,  999.0,    3.9,    2.0,  999.0,  999.0,  999.0,  999.0,  999.0,  -10.5,   -9.3,   -8.1,   -1.3,   -0.9,   -1.3,   -1.5,   -1.3,   -0.9,   -1.2,   -0.8,   -0.9,   -0.4,   -0.8,   -1.1,   -0.9,   -0.8,   -0.8,   -0.8,   -0.4,   -0.8,   -0.5,   -0.5,   -0.9,   -1.1,   -0.8,   -0.5,   -0.4,   -0.9,   -0.7,   -0.9,   -1.1,   -0.8,   -1.0,   -0.5
2000/12/02 09:20,  999.0,    0.1,   -0.3,    0.4,   -0.1,    0.3,    0.9,    1.3,    1.8,    2.9,    1.6,    2.5,    2.8,    3.1,    4.5,    1.2,    8.2,    1.1,   29.3,   34.0,  999.0,   33.7,   35.0,   32.8,   38.0,   -0.6,   39.6,   -2.2,   27.1,   21.4,   12.5,   10.2,   -1.0,    6.3,   -6.0,   -7.7,  -21.0,   -0.5,   19.9,    4.4,    9.9,   -4.0,  999.0,   -0.9,   -3.5,   -3.5,    2.0,   -0.7,  999.0,  -19.3,   -9.1,   18.6,   10.9,    5.3,   20.1,   -1.0,  -15.0,    2.1
2000/12/02 09:30,  999.0,   -1.3,   -1.0,   -2.1,   -0.7,   -0.6,    2.0,    4.3,    4.6,    5.2,    1.8,    1.2,    1.6,    2.1,    1.9,    2.9,    1.9,  999.0,  999.0,  999.0,  999.0,  999.0,  -22.8,  -38.0,  -23.1,  -23.3,  -22.7,  -21.8,  -21.0,  -24.7,  -34.9,  -40.4,  -41.8,  -33.2,  -34.5,  -40.1,  -41.9,  -39.2,  -37.7,  -35.0,  -26.4,  -31.4,  -27.6,  -27.7,  -31.8,  -20.8,  -31.2,  -28.3,  -28.3,  -20.4,  -33.8,  -20.8,  -24.2,  -40.6,  -20.5,  -41.6,  -41.7,  -27.8
2000/12/02 09:40,  999.0,   -1.5,   -2.8,   -1.4,   -0.6,   -0.8,    0.4,    1.8,    2.3,    2.4,    2.1,    0.4,    3.3,    2.9,    2.3,    0.8,    2.7,  999.0,  999.0,  999.0,  999.0,  -27.4,  -33.3,  -39.5,  -37.0,  -41.5,  -24.9,  -21.6,  -25.7,   -1.0,  -41.6,  -38.3,  -42.2,  -41.2,  -31.6,  -32.1,   13.3,  -21.4,   -0.0,   -3.0,  -41.5,  -15.7,  -21.2,  -11.1,  999.0,  -14.2,  -34.9,  -10.4,   -0.1,   -0.1,   -4.2,  -19.1,  -41.6,   -1.0,  -32.7,  -41.8,  -10.6,  -10.5
2000/12/02 09:50,  999.0,   -0.6,   -1.5,   -0.7,    1.2,    2.2,    3.1,    3.7,    2.8,    1.7,    1.8,    2.7,    3.3,    1.5,    2.7,    1.1,    0.2,  999.0,  999.0,  999.0,  999.0,  -13.9,  999.0,   -7.0,  -16.0,  -21.7,   -7.4,  -21.5,  999.0,  -14.7,   -2.7,  999.0,   -1.6,   -0.9,  999.0,  -18.3,  999.0,  999.0,  999.0,  999.0,   25.8,  -13.6,   17.4,   -0.8,   12.2,  -21.4,   -3.2,  -36.3,  -31.3,   17.0,  -16.3,  -24.5,  -39.4,  -27.7,  -22.2,  999.0,  -28.4,  -28.0
2000/12/02 10:00,  999.0,  999.0,    1.2,    0.6,   -1.3,    1.2,    3.9,    4.0,    3.2,    1.3,    1.4,    1.7,    1.2,    1.6,    2.8,    2.1,    1.1,  999.0,  999.0,  999.0,  999.0,  999.0,  999.0,  999.0,  999.0,  999.0,  999.0,  999.0,  999.0,  999.0,  999.0,  999.0,  999.0,  999.0,  -42.0,  999.0,  -41.9,  -42.2,  -41.8,  -41.7,  -41.7,  -41.7,  -42.2,  -34.5,  -42.1,  -41.8,  -41.8,  -31.1,  -31.4,  -42.1,  -41.8,  -21.0,  -20.7,  -31.2,  -27.5,  -41.7,  -27.4,  -34.6
2000/12/02 10:10,  999.0,   -1.1,    0.4,    1.3,    0.7,    1.3,    3.0,    3.3,    1.7,    1.1,    1.3,    0.7,    2.3,    2.9,    3.7,    0.4,  999.0,    8.9,  999.0,  999.0,  999.0,   23.3,   13.7,   36.3,  999.0,   25.8,   41.8,   41.8,   41.4,  999.0,  999.0,  999.0,   21.1,   21.4,   41.5,  999.0,    3.0,  -22.8,   41.3,   21.1,   41.3,   -6.8,  -41.2,    0.2,  -25.3,   -2.8,  999.0,   41.6,  999.0,  -41.4,  -41.6,  -29.1,  -19.2,   -0.1,    7.0,    0.5,    0.1,  999.0
2000/12/02 10:20,  999.0,   -3.0,    0.4,    0.8,    0.7,    0.3,    2.1,    3.8,    3.3,    2.4,    1.4,    1.5,    2.3,    2.9,    2.4,    1.5,   -1.2,   -8.0,  999.0,  999.0,    3.5,   21.4,   21.6,   10.9,  999.0,    1.2,  999.0,  999.0,    2.8,  999.0,  999.0,   18.3,    1.0,   23.4,    6.8,  999.0,  -20.4,  -41.6,   -2.8,  -20.6,    0.4,  -20.7,  999.0,  999.0,  -16.7,    0.5,  -14.6,    5.4,   -6.7,  -41.5,    4.1,   19.7,    0.3,   21.3,  -21.5,  -40.9,   -0.4,   41.5
2000/12/02 10:30,  999.0,   -0.8,   -0.7,   -0.5,    0.9,    0.8,    1.5,    2.7,    3.5,    3.8,    1.7,   -0.3,    0.8,    1.1,    3.1,   -0.0,  999.0,  999.0,  999.0,  999.0,    1.1,   13.7,   41.0,   41.1,    0.3,  999.0,   21.2,   -0.1,   10.6,  -41.8,  -10.4,  999.0,   21.3,   41.7,    0.7,   -0.3,   -0.4,    0.7,  999.0,  999.0,   12.4,  999.0,   -0.4,   -9.6,   -6.2,   -8.2,   -0.6,   -4.8,    0.1,   -0.8,   -5.8,   -5.6,  -18.0,  -23.1,  -28.1,  -24.6,  -15.3,   -1.6
2000/12/02 10:40,  999.0,  999.0,    0.3,    2.4,    1.4,    1.2,    2.0,    3.5,    4.0,    3.4,    2.0,    0.5,    0.6,    0.8,    1.6,  999.0,  999.0,  999.0,  999.0,  999.0,  999.0,    0.8,    0.2,    0.5,    0.8,    0.6,  999.0,  999.0,  999.0,    0.8,  999.0,  999.0,   25.4,  999.0,   -0.2,   29.3,   -1.7,   20.6,  999.0,  999.0,   41.5,   -7.0,  -21.4,   -7.1,    2.9,   -0.5,   20.1,   -0.3,   -7.7,  -19.1,   10.7,   -0.8,    2.8,    0.6,   -1.0,    4.1,    9.3,   -0.7
2000/12/02 10:50,  999.0,  999.0,    3.4,    0.5,    2.4,    1.6,    2.6,    3.9,    3.4,    3.0,    1.6,    0.3,    0.1,    2.2,    3.0,    4.3,    5.1,    7.1,  999.0,  999.0,  999.0,  999.0,  999.0,  999.0,  999.0,  999.0,  999.0,  999.0,  999.0,  999.0,  999.0,  999.0,  999.0,  999.0,  999.0,  999.0,   -1.2,   -0.9,  999.0,  999.0,  999.0,   -0.8,   -0.8,   -0.3,   -0.8,   -0.3,   -0.8,   -1.0,   -0.7,   -1.0,   -0.7,   -0.8,   -1.1,   -0.2,   -0.7,   -0.8,   -0.5,   -0.8
2000/12/02 11:00,  999.0,  999.0,    0.3,   -1.3,    0.4,    1.2,    1.5,    0.9,    0.6,    2.2,    1.3,    1.2,    0.2,    1.4,    4.1,    2.1,    2.5,    6.5,  999.0,  999.0,    5.8,    3.0,    0.7,    0.5,    3.9,   40.7,  999.0,    0.8,   20.8,   21.3,   41.7,   21.3,   41.8,    0.5,   21.1,  999.0,   11.7,   -0.0,   14.2,   12.8,   10.6,    5.8,    6.3,    3.2,    2.3,    2.9,   -0.1,    0.0,    0.0,   -0.1,  999.0,    1.5,    4.3,   -0.3,    0.1,    0.7,    0.2,    0.1
2000/12/02 11:10,  999.0,  999.0,    0.5,    1.2,    5.6,    2.1,   -0.4,    3.8,    0.7,    2.0,    2.5,    2.6,    1.1,    0.7,    0.9,   -1.8,    2.8,    2.1,  999.0,  999.0,  999.0,  999.0,  999.0,  999.0,  999.0,   -9.1,   -5.6,   -4.7,   -5.9,  999.0,   -2.4,   -1.4,    0.1,  999.0,   -0.5,  999.0,   -0.4,   -2.3,   -0.9,  999.0,   -7.7,  -18.3,  -21.1,  999.0,  999.0,   -4.9,    9.3,   41.5,    5.6,    0.2,    0.5,   11.1,    7.8,   18.7,    1.0,   20.4,    1.3,    0.5
2000/12/02 11:20,  999.0,    2.6,    1.1,   -1.1,    0.8,    0.1,   -0.2,    0.5,    0.6,    1.0,    1.4,    1.5,   -0.2,    0.9,    0.2,   -3.0,   -5.1,  999.0,  999.0,  999.0,  999.0,  999.0,  999.0,  999.0,  999.0,  999.0,  999.0,  999.0,  999.0,  999.0,  999.0,  999.0,  999.0,  999.0,  999.0,  -41.3,  -41.5,  999.0,  -41.8,  -41.9,  -41.9,  -42.3,  -41.7,  -41.8,  -41.9,  -41.7,  999.0,  -41.1,  -41.7,  -41.6,  999.0,  -41.8,  -42.1,  -41.6,  -41.2,  -41.7,  -41.4,  999.0
2000/12/02 11:30,  999.0,    0.6,    1.7,    1.1,    0.4,    0.3,    0.5,   -0.5,   -0.7,   -0.5,   -0.5,   -0.6,   -1.3,   -1.8,   -0.2,    0.2,  999.0,  999.0,  999.0,  999.0,  999.0,  999.0,  999.0,  999.0,  999.0,  999.0,  999.0,  999.0,  999.0,  999.0,  999.0,  999.0,  -41.8,  -41.7,  -41.1,  -42.0,  -41.9,  -41.8,  -41.2,  -41.5,  -42.3,  -41.8,  -41.7,  -42.1,  -41.7,  -41.9,  -41.7,  -42.0,  -41.8,  -41.8,  -42.2,  -41.9,  -41.6,  -41.6,  -41.3,  -41.5,  -41.4,  -42.0
2000/12/02 11:40,  999.0,    1.9,    1.2,    1.5,    2.1,    0.3,    0.5,   -0.2,   -0.2,   -0.6,   -0.6,   -1.6,   -1.9,   -1.2,    0.1,   -2.5,   -2.6,  999.0,  999.0,  999.0,  999.0,  999.0,  999.0,  999.0,  999.0,  999.0,  999.0,  999.0,  -35.4,  999.0,  -39.0,  -39.6,  -42.2,  -40.8,  -41.5,  -41.8,  -41.8,  -42.4,  -42.1,  -41.8,  -41.7,  -41.9,  -41.5,  -41.5,  -42.0,  -41.8,  -41.2,  -41.7,  -41.9,  -41.6,  -42.1,  -42.1,  -42.1,  -41.9,  -41.3,  -42.1,  -41.9,  -42.4
2000/12/02 11:50,  999.0,    0.3,    0.4,   -0.1,    1.4,    0.1,   -0.1,    0.4,   -0.6,    0.2,    0.7,    0.6,    1.5,    1.2,    1.3,    3.0,    2.4,  999.0,  999.0,  999.0,  999.0,  999.0,  999.0,  999.0,  999.0,  999.0,  999.0,  999.0,  -35.7,  999.0,  -37.5,  -40.2,  -40.9,  999.0,  999.0,  -42.1,  -42.1,  -41.6,  -42.2,  -41.6,  999.0,  999.0,  -42.1,  -41.3,  -42.0,  -42.3,  -41.7,  -41.6,  -41.9,  -41.1,  -41.7,  -41.9,  -42.1,  -41.6,  -41.8,  -41.8,  -41.5,  -41.7
2000/12/02 12:00,  999.0,   -0.0,    0.3,   -0.2,    0.2,    1.3,    0.5,    0.6,   -0.1,   -2.3,    0.4,    2.2,    2.0,    1.8,    2.3,    2.3,    2.8,  999.0,  999.0,  999.0,  999.0,   28.5,   31.5,   33.6,   36.7,   39.2,   41.3,  999.0,    3.7,    3.4,  -36.5,   41.7,  -12.2,  -13.0,   37.4,  -15.5,  -42.0,  -41.7,  -41.3,  -18.1,   -6.9,   -8.0,   -9.3,  -20.7,   20.3,  -21.7,  -41.9,  -41.6,  -41.5,  999.0,  -41.2,  -41.9,  -39.7,  -39.9,  -38.5,  -41.0,  -41.7,  -42.0
2000/12/02 12:10,  999.0,    2.2,   -0.8,    1.2,    0.8,    0.4,   -0.2,   -0.0,    2.2,   -0.1,    0.1,    1.0,   -0.0,    1.2,    2.3,    1.3,   -0.4,   -0.7,  999.0,  999.0,  999.0,   31.1,   33.9,   35.0,   37.8,   42.5,   41.9,   41.6,   42.0,   41.9,   42.1,   42.4,   41.2,   40.4,   37.9,   38.8,   37.0,   35.5,   36.8,   33.7,   32.7,   31.2,   30.9,   28.8,   32.3,   20.9,  999.0,  999.0,  -28.3,  -29.8,  999.0,  999.0,  -35.5,  999.0,  999.0,  -40.0,  -40.1,  -41.7
2000/12/02 12:20,  999.0,    0.5,    0.9,    1.2,    2.3,    0.7,    0.1,    0.0,   -0.9,   -1.4,   -0.7,    0.9,    0.5,    1.3,    1.5,   -0.9,    0.5,  999.0,  999.0,   22.8,  999.0,   33.1,   34.2,   36.6,   38.2,   42.3,   40.3,   41.3,   41.8,   42.0,   41.5,   41.4,   39.5,   37.0,   34.9,   31.1,   30.0,   20.6,   25.2,   23.8,   14.2,   21.3,   22.5,   21.6,  999.0,  999.0,  999.0,  999.0,  -41.7,  -41.6,  -42.4,  999.0,  999.0,  999.0,  999.0,  -39.6,  -41.5,  -41.6
2000/12/02 12:30,  999.0,    1.3,    0.6,    2.3,    1.8,    0.3,    0.1,   -0.1,    0.6,    0.8,    1.2,    1.5,    1.7,    1.1,    0.7,    1.6,   -1.8,  999.0,  999.0,  999.0,  999.0,  999.0,   42.0,   41.8,   42.2,   42.0,   42.5,   42.0,   41.8,   41.9,   28.0,   41.7,   35.0,   34.3,   33.6,   20.3,   39.7,   24.5,   23.8,   35.5,   42.2,   41.7,   23.2,   28.3,  999.0,   13.5,  999.0,  999.0,  999.0,  999.0,  999.0,  999.0,  999.0,  999.0,  999.0,  -41.8,  -41.8,  -42.2
2000/12/02 12:40,  999.0,    0.0,    1.3,    0.4,    1.1,    1.2,    0.6,    0.3,    0.7,    1.8,    2.8,    2.4,    2.7,    3.3,    0.8,    2.0,    0.7,  999.0,  999.0,   16.8,  999.0,   15.4,   13.5,   13.2,   11.9,   11.0,   10.0,    9.1,   24.7,   15.4,    4.9,    3.8,   -5.7,  -10.1,  -14.3,  -19.4,  -13.5,  -20.6,  999.0,  -20.8,  -20.8,  -20.5,  -20.4,    0.7,  -20.5,  -41.7,   -0.0,    1.0,  -41.6,  -42.0,  -20.7,  -20.6,    0.6,    0.6,  -20.5,  -20.6,  -27.8,  -42.2
2000/12/02 12:50,  999.0,    0.0,    0.5,    0.2,    0.4,    0.4,    0.1,    0.2,   -0.1,    0.3,   -0.1,    1.6,    1.0,   -0.0,    0.6,    1.1,    0.7,   -5.1,  999.0,   10.6,    9.2,    7.9,    6.6,    8.4,  999.0,    1.9,    8.4,    3.8,    3.0,    2.7,    2.1,    1.5,    0.6,    0.7,    0.8,    1.0,    0.9,    0.6,    0.6,    0.9,    0.7,    1.2,    0.6,    0.7,    0.5,    0.7,    0.7,    1.0,    0.6,    0.8,    0.8,    0.8,    0.5,    1.3,    1.0,    1.0,    1.2,    0.6
2000/12/02 13:00,  999.0,   -0.2,    0.0,    0.2,    0.0,    0.1,    0.1,    0.1,   -0.4,   -1.6,   -1.4,   -0.9,   -2.3,  999.0,   -3.1,   -4.4,   -4.6,   -7.9,  999.0,   13.0,   10.0,    8.7,    7.5,    5.6,    4.0,    2.1,    0.4,    0.6,    0.9,    0.7,    0.7,    0.9,    0.6,    1.1,    0.9,    0.7,    0.7,    1.0,    0.7,    0.5,    1.0,    0.5,    0.7,    0.9,    0.6,    0.6,    0.9,    0.4,    0.2,    0.7,    1.2,    0.8,    1.0,    0.8,    0.9,    0.6,    0.5,    0.9
2000/12/02 13:10,  999.0,    0.3,   -0.2,   -0.1,   -0.1,   -0.1,   -0.0,    0.0,    0.2,    0.4,    0.4,    0.0,   -0.8,    1.0,    2.2,    1.1,    0.8,  999.0,  999.0,   12.2,   10.8,    8.7,    7.0,    4.7,    3.3,    1.7,    0.8,    0.5,    0.7,    0.8,    0.7,    1.1,    0.8,    0.9,    0.4,    0.9,    0.7,    0.9,    0.3,    1.0,    0.9,    1.0,    0.7,    0.7,    0.8,    0.7,  999.0,    0.5,    0.8,    1.0,    0.6,    1.2,    0.6,    1.1,    0.9,    0.3,    0.6,    1.0
2000/12/02 13:20,  999.0,    0.2,    0.2,    0.1,    0.1,    0.1,    0.0,   -0.1,    0.1,    0.1,    0.2,    2.5,   -0.3,    1.2,    1.5,    0.2,    0.5,  999.0,  999.0,   11.6,   10.3,    8.3,    7.1,    5.3,    3.5,    1.5,    0.9,    0.7,    0.8,    0.6,    0.9,    0.8,    1.2,    0.8,    1.1,    1.0,    1.2,    0.6,    0.8,    0.5,    0.9,    0.8,    0.7,    0.9,    0.6,    0.4,    0.6,    0.5,    0.6,    0.6,    0.3,    0.5,    0.3,    0.4,    0.8,    0.9,    0.7,    0.3
2000/12/02 13:30,  999.0,    0.1,   -0.3,   -0.1,    0.2,    0.0,   -0.1,    0.1,    0.1,    0.3,   -0.2,    0.1,  999.0,    2.2,    3.0,  999.0,    2.3,  999.0,  999.0,   13.8,   11.6,    9.0,    7.6,    5.3,    3.8,    2.0,    1.2,    0.5,    0.6,    0.8,    0.7,    0.8,    0.8,    0.5,    0.5,    0.4,    0.9,    0.6,    0.6,    0.7,    0.8,    0.6,    0.6,    0.5,    0.6,    0.8,    0.6,    0.5,    0.7,    0.7,    0.3,    1.3,    0.8,    0.7,    0.9,    1.0,    0.6,    0.7
2000/12/02 13:40,  999.0,    0.1,    0.0,    0.1,    0.2,   -0.0,    0.0,    0.1,    0.2,    0.4,    0.3,    0.5,   -0.4,  999.0,  999.0,  999.0,  999.0,  999.0,  999.0,   13.3,   11.5,   10.1,    8.4,    7.0,    5.5,    4.9,    3.7,    1.7,    1.0,    0.5,    0.4,    0.7,    0.4,    0.4,    0.9,    0.8,    0.6,    0.9,    1.1,    1.2,    0.9,    1.0,    0.8,    0.7,    0.5,    0.5,    0.5,    0.7,    0.5,    0.6,    0.8,    0.4,    0.7,  999.0,    0.6,    0.8,    0.8,    0.4
2000/12/02 13:50,  999.0,    0.0,   -0.0,   -0.1,    0.1,    0.2,    0.0,   -0.0,   -0.0,    0.6,    0.2,  999.0,    0.8,  999.0,  999.0,  999.0,  999.0,  999.0,  999.0,   13.5,   12.0,   11.5,    9.0,    7.7,    6.7,    4.7,    3.1,    1.4,    0.7,    0.5,    0.6,    0.9,    0.7,    0.4,    0.4,    0.5,    0.8,    0.7,    0.5,    0.4,    1.0,    1.0,    0.7,    0.7,    0.7,    0.8,    0.9,    0.7,    0.7,    0.7,    0.4,    0.8,    1.0,    0.6,    1.0,    0.6,    0.9,    1.3
2000/12/02 14:00,  999.0,    0.1,    0.2,    0.1,   -0.1,    0.0,    0.1,    0.1,   -0.1,  999.0,    0.1,    0.1,  999.0,  999.0,  999.0,  999.0,  999.0,  999.0,  999.0,   12.8,    9.7,    8.0,    7.8,    5.2,    3.6,    0.9,    1.4,    0.3,    0.7,    1.0,    0.7,    1.0,    1.0,    0.8,    0.4,    0.7,    1.1,    0.6,    0.8,    1.0,    0.8,    0.8,    0.6,    0.4,    0.6,    0.9,    0.9,    1.1,    0.5,    0.8,    0.8,    0.7,    0.7,    0.4,    0.4,    0.6,    0.9,    1.0
2000/12/02 14:10,  999.0,   -0.0,    0.0,    0.0,   -0.1,    0.1,   -0.0,   -0.0,    0.2,    0.7,    0.5,   -0.2,   -0.8,   -0.6,   -1.2,   -2.2,  999.0,  999.0,  999.0,   12.8,   10.4,    8.5,    6.5,    4.6,    2.1,    0.8,   -0.0,    0.8,    0.7,    0.4,    0.8,    0.6,    0.6,    0.8,    0.4,    0.4,    0.6,    1.0,    0.7,    0.6,    0.7,    0.6,    0.6,    0.9,    1.1,    0.8,    0.4,    0.8,    0.6,    0.9,    1.2,    0.9,    1.0,    1.0,    1.0,    1.0,    0.6,    0.2
2000/12/02 14:20,  999.0,    0.0,   -0.0,   -0.1,   -0.0,    0.3,    0.1,   -0.1,    0.1,   -0.0,    0.2,   -0.1,   -0.0,  999.0,   -0.1,  999.0,  999.0,  999.0,  999.0,   11.9,   10.2,    8.4,    6.2,    4.1,    2.5,    0.8,    0.7,    0.7,    0.7,    0.4,    0.6,    0.7,    0.8,    0.6,    0.5,    0.9,    0.6,    0.6,    0.5,    0.6,    0.5,    1.0,    0.7,    0.3,    0.5,    0.5,    0.6,    0.6,    0.6,    0.5,    0.6,    0.7,    1.0,    0.6,    0.6,    0.8,    0.7,    0.8
2000/12/02 14:30,  999.0,   -0.0,    0.0,    0.0,    0.0,   -0.2,    0.0,    0.1,    0.1,   -0.3,   -0.1,    0.3,    0.2,   -0.7,   -0.3,   -4.8,  999.0,  999.0,  999.0,   13.1,   10.8,    7.8,    6.7,    4.8,  999.0,    1.5,    0.8,    0.3,    0.6,    0.9,    1.1,    0.4,    0.4,    0.7,    1.0,    0.6,    0.8,    0.8,    0.8,    1.0,    0.7,    0.7,    0.4,    0.7,    1.1,    1.1,    0.8,    0.6,    0.9,    0.8,    1.0,    0.3,  999.0,    0.6,    0.9,    1.0,    1.1,    0.6
2000/12/02 14:40,  999.0,    0.1,   -0.0,   -0.1,   -0.1,   -0.1,   -0.0,   -0.0,    0.1,  999.0,    0.6,    0.3,   -0.3,    0.2,    0.5,  999.0,  999.0,  999.0,  999.0,  999.0,  999.0,  999.0,    6.6,    6.0,    5.0,    2.9,    0.7,    0.8,    0.6,    0.9,    0.6,    0.2,    0.4,    0.9,    0.9,    0.7,    0.4,    0.8,    1.0,    0.9,    0.7,    0.6,    0.9,    0.9,    1.1,    1.0,    0.6,    0.6,    0.5,    0.5,    0.2,    0.9,    0.8,    1.2,    0.8,    0.6,    0.5,    0.5
2000/12/02 14:50,  999.0,    0.0,   -0.0,   -0.1,    0.1,   -0.0,   -0.1,    0.1,    0.0,    0.0,   -0.1,   -0.0,   -0.3,    0.5,    1.3,    1.3,  999.0,  999.0,  999.0,  999.0,  999.0,   11.6,    9.8,    8.1,    4.9,    4.0,    2.4,    1.8,    1.3,    1.1,    0.8,    0.6,    0.5,    0.8,    0.9,    1.1,    1.2,    0.6,    0.7,    0.9,    0.9,    0.4,    0.6,    0.4,    0.6,    0.7,    0.5,    0.7,    0.7,    0.7,    0.4,    1.0,    0.7,    0.9,    0.5,    0.6,    0.8,    0.6
2000/12/02 15:00,  999.0,   -0.5,    0.0,    0.6,    0.1,   -0.0,   -0.1,    0.0,    0.3,    1.3,    0.6,   -0.4,   -1.4,   -2.5,   -1.9,   -4.6,  999.0,  999.0,  999.0,  999.0,  999.0,    7.4,    5.6,    3.1,    1.3,    0.6,    0.8,    0.9,    0.8,    0.7,   -0.0,    1.1,    0.3,    0.9,    1.2,    0.8,    0.9,    0.7,    0.4,    0.9,    0.6,    0.9,    0.7,    0.4,    0.6,    0.8,    0.9,    0.9,    1.0,    0.8,    0.8,    0.4,    0.8,    0.8,    0.7,    0.9,    0.7,    0.5
2000/12/02 15:10,  999.0,    0.0,    0.0,    0.2,    0.0,   -0.1,   -0.1,   -0.0,    0.1,    0.6,    0.6,    0.5,    1.2,    1.8,    1.5,    0.7,   -2.6,   -4.4,  999.0,  999.0,  999.0,    5.3,    8.6,    1.2,    3.1,    1.3,    1.0,    1.2,    1.1,  999.0,    0.7,    0.9,    0.8,    0.8,    0.4,    0.8,    0.8,    0.8,    0.6,    0.8,    0.4,    0.3,    0.8,    0.8,    0.7,    0.8,    0.5,    1.0,    0.9,    0.9,    0.5,    0.5,    0.6,    0.7,    0.7,    0.7,    0.7,    0.7
2000/12/02 15:20,  999.0,    0.0,   -0.0,   -0.0,   -0.0,   -0.1,   -0.0,   -0.0,    0.1,    0.6,    0.1,    0.7,    0.5,    3.0,    0.8,    0.8,   -0.0,   -1.8,  999.0,  999.0,  999.0,  999.0,  999.0,    6.1,    2.8,    3.5,    1.8,    0.9,    1.4,    0.8,    0.5,    0.5,    0.7,    0.7,    0.3,    0.7,    0.4,    0.5,    0.7,    0.1,    0.5,    0.5,    0.3,    0.6,    0.7,    0.5,    0.7,    0.7,    0.6,    0.8,    0.2,    1.0,    0.9,    0.6,    0.6,    0.9,    0.9,    0.3
2000/12/02 15:30,  999.0,    0.1,    0.2,   -0.1,    0.1,   -0.0,    0.1,    0.0,   -0.2,   -0.2,   -0.2,    0.0,    0.8,    0.3,   -0.1,   -1.0,  999.0,   -4.9,  999.0,  999.0,  999.0,  999.0,  999.0,  999.0,    6.8,    3.0,    2.3,    1.7,    0.7,    0.6,  999.0,    0.9,    1.1,    0.6,    0.7,    1.2,    0.8,    0.9,    0.7,    0.9,    0.7,    1.1,    0.8,    0.7,    0.5,    0.8,    0.7,    1.0,    0.7,    0.6,    0.3,    0.7,    0.7,    0.1,    0.7,    0.6,    0.5,    0.3
2000/12/02 15:40,  999.0,    0.3,   -0.0,    0.5,   -0.0,   -0.1,    0.1,    0.0,   -0.2,    0.5,    0.5,    0.7,    1.1,    0.6,   -1.5,   -1.8,   -5.9,   -6.1,  999.0,  999.0,  999.0,  999.0,  999.0,  999.0,    0.6,  999.0,    0.2,    0.6,    0.6,    0.5,    1.3,    0.9,    1.2,    0.8,    0.9,    0.6,    0.8,    0.6,    0.8,    0.5,    0.9,    0.9,    0.6,    0.8,    0.8,    0.6,    0.9,    0.9,    0.7,    0.7,    0.5,    0.7,    0.6,    0.5,    0.2,    0.7,    0.3,    0.7
2000/12/02 15:50,  999.0,    0.1,   -0.0,   -0.1,   -0.1,   -0.1,   -0.0,   -0.1,    0.2,    0.9,    0.7,    0.6,    1.2,    0.3,    0.2,   -1.2,   -3.4,  999.0,  999.0,  999.0,  999.0,  999.0,  999.0,  999.0,  999.0,  999.0,    0.7,    0.5,    0.7,    0.5,    0.9,    0.7,    1.2,    0.7,    1.1,    0.6,    0.9,    0.7,    0.8,    0.9,    0.9,    0.9,    0.7,    0.8,    0.7,    0.7,    0.8,    0.8,    0.9,    1.0,    0.4,    1.2,    0.7,    1.0,    1.3,    1.6,    0.6,    0.7
2000/12/02 16:00,  999.0,   -0.1,    0.1,   -0.0,    0.1,    0.1,    0.1,    0.2,    0.2,    0.9,    0.5,    0.5,    1.9,    1.7,    0.2,   -4.2,   -4.4,   -6.3,  999.0,  999.0,  999.0,  999.0,  999.0,  999.0,    0.7,    0.8,    0.6,    0.8,    0.7,    0.6,    0.6,    1.0,    0.9,    1.0,    0.4,    0.5,    0.8,    0.6,    1.1,    1.1,    0.9,    0.6,    0.7,    0.6,    0.5,    0.3,    0.6,    0.5,    0.9,    0.7,    0.9,    0.9,    0.8,    1.1,    0.4,    0.6,    1.2,    1.0
2000/12/02 16:10,  999.0,    0.4,    0.1,   -0.4,    0.2,    0.2,    1.3,    0.9,    0.4,    3.3,    0.9,    1.5,    3.0,    2.4,    2.3,    1.1,   -0.2,   -0.8,   -1.0,    3.5,  999.0,  999.0,  999.0,  999.0,   21.2,    0.7,   41.5,   41.5,  999.0,    0.8,   41.3,  999.0,   41.6,   21.4,   21.0,   41.5,   21.1,  999.0,   42.4,   41.6,   -1.0,    0.7,  -15.1,  -32.7,    6.7,    0.4,    1.7,    9.7,    3.9,    5.6,   14.0,    8.0,   10.0,   22.8,   23.5,  999.0,   37.0,   21.1
2000/12/02 16:20,  999.0,   -0.3,    1.2,    1.9,   -0.2,    1.0,    0.6,    1.1,    1.4,    2.7,    0.3,    0.1,    0.5,    1.1,    1.5,    0.9,    0.3,    1.9,    0.3,   -3.6,  999.0,  999.0,  999.0,  999.0,   19.6,   19.4,   40.8,   42.1,   21.2,   20.9,   21.5,   21.1,   21.5,   42.3,   21.2,   21.3,   41.9,   21.2,   13.4,   22.9,   21.1,   13.2,   27.7,   20.9,   15.8,   23.3,   12.6,   16.0,    6.6,   -0.8,   21.5,   17.7,   31.3,   20.8,   27.7,   27.7,   13.5,   20.7
2000/12/02 16:30,  999.0,    1.7,    3.3,    3.2,   -0.4,    0.1,   -0.1,    0.9,    2.4,    1.9,    1.0,    0.3,   -0.3,  999.0,    1.1,   -1.3,   -1.9,   -3.2,   -3.7,   -4.0,  999.0,  999.0,   17.2,  999.0,    0.7,   23.5,   29.8,   41.8,   31.4,   35.1,   31.3,   31.9,   42.0,   24.2,   42.0,    0.8,   35.0,   28.8,   41.6,   16.7,   26.2,   18.9,   15.0,    3.0,   17.0,    5.2,    9.3,   20.7,    3.2,    8.4,    2.0,  -20.3,  -20.5,  -13.6,  -13.0,   -6.5,   -0.3,   -6.6
2000/12/02 16:40,  999.0,   -0.1,    7.2,    7.0,    5.3,    5.7,    2.2,    2.8,    2.4,    2.9,   -0.0,    0.2,   21.0,   21.1,   21.1,   21.8,    1.6,    3.4,  999.0,   23.6,  999.0,   25.8,   29.4,   33.8,   38.4,   41.7,   41.9,   41.5,   41.7,   42.0,   42.1,   42.0,   42.4,   41.7,   41.9,   41.6,   41.5,   39.9,   38.6,   37.1,  999.0,   20.6,   19.8,   19.0,   -0.2,   16.4,    1.5,   13.8,   -0.2,   20.2,   14.1,   21.3,   21.4,   14.2,   13.9,   -1.3,   -0.1,   21.6
2000/12/02 16:50,  999.0,  999.0,   11.6,   10.3,   13.0,   13.5,  999.0,   18.8,   16.5,   21.0,   17.8,   20.8,   15.6,   20.2,   17.6,   20.5,   20.3,   23.6,    5.9,   25.8,   28.6,   32.3,   33.9,   36.9,   39.4,   41.9,   41.7,   42.2,  999.0,   42.1,   41.5,   41.7,   41.7,   41.4,   41.6,   41.4,   41.5,   41.8,   41.9,   42.1,   41.8,   42.0,   41.9,   41.6,   41.5,   41.4,  999.0,   42.0,   42.9,  999.0,   42.3,   42.6,   42.4,  999.0,   42.3,   42.0,   42.6,   42.6
2000/12/02 17:00,  999.0,    0.5,    3.9,    6.2,    7.4,   11.6,   13.2,   22.6,   21.9,   21.3,   10.7,   17.6,   21.6,   20.7,   21.1,   22.6,   21.5,   22.3,   23.4,   26.3,   28.8,   29.8,   34.8,   39.2,   40.1,   40.6,   41.2,   41.3,   41.6,   41.5,   40.9,   41.7,   41.3,   41.3,   42.2,   42.6,   41.9,  999.0,   42.1,  999.0,   42.1,   42.3,   42.1,   41.7,   41.0,   41.6,   41.7,  999.0,   42.1,   41.8,   41.6,   41.1,   41.0,   40.9,   41.6,   41.1,  999.0,  999.0
2000/12/02 17:10,  999.0,  999.0,  999.0,    6.7,    0.2,    6.7,    2.4,   21.4,   21.0,  999.0,   20.7,   20.7,   21.1,   16.9,   20.5,   21.4,   21.9,   22.4,   22.9,   25.2,  999.0,   28.4,   30.1,   32.4,  999.0,   35.1,   37.9,   39.3,   39.3,   41.9,   41.8,   41.5,    8.9,   18.6,   36.5,   42.3,  999.0,   42.0,  999.0,   41.7,   35.7,   42.0,   21.6,    0.8,   20.8,   28.1,   27.9,   41.8,   39.1,   31.4,   33.7,   42.2,   42.6,   39.1,   36.5,  999.0,   31.9,  999.0
2000/12/02 17:20,  999.0,  999.0,  999.0,  999.0,  999.0,  999.0,   21.5,   21.5,   21.9,   21.4,   21.4,   21.8,   20.8,   21.1,   21.5,   21.3,   20.9,   23.1,   22.1,   27.3,   27.0,   28.2,   31.4,   30.8,   35.9,   40.5,   41.5,   42.3,   42.2,   41.9,   42.2,   42.4,   42.1,   42.0,   42.2,   41.9,   42.1,   42.3,   42.2,   41.4,   41.8,   42.5,   42.0,   41.6,   41.7,   42.3,   41.7,   42.1,   42.1,   41.5,   42.0,   42.4,   42.4,   42.0,   41.3,   42.4,  999.0,   42.0
2000/12/02 17:30,  999.0,  999.0,  999.0,  999.0,  999.0,  999.0,   21.1,   21.4,   21.4,   21.1,   20.7,  999.0,   21.4,   20.9,   20.9,   21.2,   20.8,   20.8,   24.0,   25.0,   26.0,   28.7,   30.5,   32.6,   34.5,   36.0,   37.9,   41.0,  999.0,   42.0,   41.9,   41.8,   41.5,   42.1,   42.4,   42.2,   42.4,   41.8,   42.0,   41.6,   41.8,   41.7,   41.9,   42.0,   42.0,   41.6,   41.8,   41.6,   42.0,   41.6,  999.0,   41.8,   41.7,   42.0,   41.8,   41.7,   42.0,   42.3
2000/12/02 17:40,  999.0,    0.1,    0.5,    2.8,   -0.1,    0.0,   20.9,   21.7,   21.3,   21.4,   18.1,   21.5,    0.7,   11.6,  999.0,  999.0,   21.2,   20.6,   22.7,   19.5,   22.0,   27.6,   27.7,   30.6,   34.5,   31.9,   36.5,   39.8,   41.5,  999.0,   39.7,   41.7,   41.8,   41.2,   41.8,   41.6,   42.1,   42.0,   42.4,  999.0,   41.5,   41.7,  999.0,   41.3,   41.3,   41.6,  999.0,   41.6,   41.5,   41.6,   41.4,  999.0,   41.8,   41.7,   41.8,   41.6,   41.7,   41.7
2000/12/02 17:50,  999.0,  999.0,  999.0,  999.0,   16.5,   20.8,   21.1,   21.2,   22.1,   21.7,   21.7,   21.0,   21.6,   20.9,   22.3,   21.3,   22.2,   21.6,   21.8,   22.4,   22.0,   26.9,   27.5,   30.7,   33.7,   33.1,   38.2,   38.7,   40.2,   41.7,   41.4,   41.5,   42.0,   41.5,   42.4,   41.4,   41.5,   41.5,   42.3,   41.6,   41.7,   41.6,   41.4,   41.8,   42.1,   41.3,   41.6,   42.3,   41.9,  999.0,   41.8,   41.6,   42.2,   41.7,   41.1,   41.9,   41.7,   40.9
2000/12/02 18:00,  999.0,  999.0,  999.0,  999.0,  999.0,  999.0,   21.0,   21.6,   21.3,   21.7,   21.9,  999.0,   20.1,  999.0,   20.0,   19.4,   17.4,   21.9,   21.1,   24.9,  999.0,   26.9,   26.3,   31.6,   31.8,   30.4,   31.7,   37.3,   42.1,   35.4,   38.5,   39.4,  999.0,   41.0,   41.7,   42.2,   42.0,   42.7,   42.3,   41.7,   42.0,   42.3,   37.3,   41.4,   41.1,   42.2,   41.8,   42.2,  999.0,   41.3,   42.7,   41.8,   41.9,   41.8,   42.4,   42.4,   42.5,   42.2
2000/12/02 18:10,  999.0,  999.0,  999.0,  999.0,  999.0,  999.0,  999.0,  999.0,  999.0,   19.6,  999.0,  999.0,  999.0,  999.0,   -1.5,   21.5,   21.2,   12.2,   15.3,  999.0,   23.4,   24.9,   25.0,   25.1,   28.2,   29.1,   29.8,  999.0,   32.3,   31.6,   30.9,   31.6,   34.6,   35.2,   41.1,   33.0,  999.0,   38.3,  999.0,   42.1,   37.0,   42.4,  999.0,   40.6,   41.4,   41.0,   41.3,   41.8,   41.9,   42.2,   42.2,   42.0,   42.2,   41.8,   42.4,  999.0,   41.7,   42.4
2000/12/02 18:20,  999.0,   -0.4,   -1.6,  999.0,   -1.1,  999.0,  999.0,  999.0,  999.0,  999.0,  999.0,  999.0,   -2.8,   -1.6,   -2.2,   -1.7,   -0.6,    0.2,    2.0,  999.0,  999.0,  999.0,  999.0,  999.0,  999.0,  999.0,  999.0,  999.0,  999.0,  999.0,  999.0,  999.0,  999.0,  999.0,  999.0,  999.0,  999.0,  999.0,  999.0,  999.0,  999.0,  999.0,  999.0,  999.0,  999.0,  999.0,  999.0,  999.0,  999.0,  999.0,  999.0,  999.0,  999.0,  999.0,  999.0,  999.0,  999.0,  999.0
2000/12/02 18:30,  999.0,    2.0,    3.4,    1.4,   -0.1,   -0.7,   -0.4,    1.1,  999.0,  999.0,  999.0,  999.0,   -3.6,   -1.1,   -0.8,   -0.6,   -0.2,    0.0,   -2.6,  999.0,  999.0,  999.0,  999.0,  999.0,  999.0,  999.0,  999.0,   -4.3,  999.0,  999.0,  999.0,  999.0,  999.0,  999.0,  999.0,  999.0,  999.0,    0.6,    0.8,  999.0,    1.8,    0.8,    1.4,    1.6,    1.0,    0.7,    1.0,    1.1,  999.0,  999.0,    0.5,    0.3,  999.0,    1.2,    0.4,    0.4,    0.9,    0.6
2000/12/02 18:40,  999.0,  999.0,  999.0,  999.0,  999.0,    0.4,    4.0,    5.0,  999.0,  999.0,  999.0,    1.7,    4.7,   -0.0,    1.3,    0.5,    1.3,  999.0,  999.0,  999.0,  999.0,  999.0,  999.0,  999.0,  999.0,  999.0,  999.0,  999.0,  999.0,  999.0,  999.0,  999.0,  999.0,  999.0,  999.0,  999.0,   -0.0,  999.0,    1.0,  999.0,    0.7,    1.0,    1.1,    0.8,    0.7,    0.9,    0.5,  999.0,    0.5,  999.0,  999.0,  999.0,    1.0,    0.8,    0.3,    1.3,    0.7,  999.0
2000/12/02 18:50,  999.0,  999.0,  999.0,  999.0,  999.0,  999.0,  999.0,  999.0,   -2.1,  999.0,   -0.3,  999.0,   -3.0,  999.0,    4.8,   -0.4,    1.2,   -8.1,  999.0,  999.0,  999.0,  999.0,  999.0,  999.0,  999.0,  999.0,  999.0,  999.0,  999.0,  999.0,  999.0,  999.0,  999.0,  999.0,  999.0,  999.0,  999.0,  999.0,  999.0,  999.0,  999.0,  999.0,  999.0,  999.0,  999.0,  999.0,  999.0,  999.0,  999.0,  999.0,  999.0,  999.0,  999.0,  999.0,  999.0,  999.0,  999.0,  999.0
2000/12/02 19:00,  999.0,  999.0,  999.0,  999.0,  999.0,    0.7,   -1.4,   -0.5,    0.9,   -0.4,   -4.6,    4.5,   -1.6,   -2.5,    0.1,  999.0,  999.0,  999.0,  999.0,  999.0,  999.0,  999.0,  999.0,  999.0,  999.0,  999.0,  999.0,  999.0,  999.0,  999.0,  999.0,  999.0,  999.0,  999.0,  999.0,  999.0,  999.0,  999.0,  999.0,  999.0,  999.0,  999.0,  999.0,  999.0,  999.0,  999.0,  999.0,  999.0,  999.0,  999.0,  999.0,  999.0,  999.0,  999.0,  999.0,  999.0,  999.0,  999.0
2000/12/02 19:10,  999.0,  999.0,    5.7,   10.2,    7.6,    0.6,  999.0,    3.4,    0.4,    0.8,   -0.0,    0.0,    0.1,   -1.5,   -3.3,   -3.0,   -3.6,   -4.2,  999.0,  999.0,  999.0,  999.0,  999.0,  999.0,  999.0,  999.0,  999.0,  999.0,  999.0,  999.0,  999.0,  999.0,  999.0,  999.0,  999.0,  999.0,  999.0,  999.0,  999.0,  999.0,  999.0,  999.0,  999.0,  999.0,  999.0,  999.0,  999.0,  999.0,  999.0,  999.0,  999.0,  999.0,  999.0,  999.0,  999.0,  999.0,  999.0,  999.0
2000/12/02 19:20,  999.0,    3.8,  999.0,    5.1,    1.7,   -1.8,   -1.8,    1.2,    1.3,   -3.6,    0.3,   -0.9,    0.4,   -2.6,   -2.1,   -1.3,   -2.8,  -11.7,  999.0,  999.0,  999.0,  999.0,  999.0,  999.0,  999.0,  999.0,  999.0,  999.0,  999.0,  999.0,  999.0,  999.0,  999.0,  999.0,  999.0,  999.0,  999.0,  999.0,  999.0,  999.0,  999.0,  999.0,  999.0,  999.0,  999.0,  999.0,  999.0,  999.0,  999.0,  999.0,  999.0,  999.0,  999.0,  999.0,  999.0,  999.0,  999.0,  999.0
2000/12/02 19:30,  999.0,    0.6,    2.1,    3.9,    4.2,   -0.4,    4.2,    2.5,    1.0,   -3.5,    0.2,    2.0,    0.4,    2.0,    0.1,   -1.4,   -0.0,   -1.7,   -6.3,    9.8,  999.0,  999.0,  999.0,  999.0,  999.0,  999.0,  999.0,  999.0,  999.0,  999.0,  999.0,  999.0,  999.0,  999.0,  999.0,  999.0,  999.0,  999.0,  999.0,  999.0,  999.0,  999.0,  999.0,  999.0,  999.0,  999.0,  999.0,  999.0,  999.0,  999.0,  999.0,  999.0,  999.0,  999.0,  999.0,  999.0,  999.0,  999.0
2000/12/02 19:40,  999.0,    1.9,    4.7,    3.4,  999.0,    8.5,   13.2,   11.2,    1.8,    1.4,    7.6,    4.6,    6.7,    5.2,    1.1,   -0.4,   -1.8,    1.8,  999.0,  999.0,  999.0,  999.0,  999.0,  999.0,  999.0,  999.0,  999.0,  999.0,  999.0,  999.0,  999.0,  999.0,  999.0,  999.0,  999.0,  999.0,  999.0,  999.0,  999.0,  999.0,  999.0,  999.0,  999.0,  999.0,  999.0,  999.0,  999.0,  999.0,  999.0,  999.0,  999.0,  999.0,  999.0,  999.0,  999.0,  999.0,  999.0,  999.0
2000/12/02 19:50,  999.0,    0.8,    1.8,    1.3,    3.2,    5.2,    1.4,   -0.6,    5.1,    1.7,    2.7,    2.9,    3.5,    1.0,   -0.1,   -0.6,   -0.4,   -6.2,  999.0,  999.0,    0.6,  999.0,  999.0,  999.0,  999.0,  999.0,  999.0,  999.0,  999.0,  999.0,  999.0,  999.0,  999.0,  999.0,  999.0,  999.0,  999.0,  999.0,  999.0,  999.0,  999.0,  999.0,  999.0,  999.0,  999.0,  999.0,  999.0,  999.0,  999.0,  999.0,  999.0,  999.0,  999.0,  999.0,  999.0,  999.0,  999.0,  999.0
2000/12/02 20:00,  999.0,    1.0,    0.3,    0.4,  999.0,   12.6,    6.7,    7.8,    9.8,   10.8,   12.4,    9.2,    3.5,    0.9,   -0.3,    0.2,   -2.4,   -0.9,    1.6,  999.0,  999.0,  999.0,  999.0,  999.0,  -12.2,  999.0,  999.0,  999.0,  999.0,  999.0,  999.0,  999.0,  999.0,  999.0,  999.0,  999.0,  999.0,  999.0,  999.0,  999.0,  999.0,  999.0,  999.0,  999.0,  999.0,  999.0,  999.0,  999.0,  999.0,  999.0,  999.0,  999.0,  999.0,  999.0,  999.0,  999.0,  999.0,  999.0
2000/12/02 20:10,  999.0,    1.2,   -0.4,    0.5,   -2.8,    3.9,    5.9,    4.3,  999.0,  999.0,    8.2,    6.1,    5.7,   11.9,    1.8,   -0.2,    1.3,   -3.8,   -1.1,  999.0,  999.0,  999.0,  999.0,  -10.1,  -10.0,  999.0,  999.0,  999.0,  999.0,  999.0,  999.0,  999.0,  999.0,  999.0,  999.0,  999.0,  999.0,  999.0,  999.0,  999.0,  999.0,  999.0,  999.0,  999.0,  999.0,  999.0,  999.0,  999.0,  999.0,  999.0,  999.0,  999.0,  999.0,  999.0,  999.0,  999.0,  999.0,  999.0
2000/12/02 20:20,  999.0,    2.3,   -0.4,    0.3,    2.6,    2.6,    8.0,  999.0,  999.0,  999.0,   10.3,   11.6,   13.0,    9.0,    6.8,    2.1,    0.4,    3.2,   -6.8,   -0.5,  999.0,  999.0,   -8.6,  999.0,  999.0,  999.0,  999.0,  999.0,  999.0,  999.0,  999.0,  999.0,  999.0,  999.0,  999.0,  999.0,  999.0,  999.0,  999.0,  999.0,  999.0,  999.0,  999.0,  999.0,  999.0,  999.0,  999.0,  999.0,  999.0,  999.0,  999.0,  999.0,  999.0,  999.0,  999.0,  999.0,  999.0,  999.0
2000/12/02 20:30,  999.0,  999.0,   -3.6,   -1.0,   -1.1,   -0.1,    2.4,    1.9,    8.4,    4.2,    8.4,   11.0,    5.0,    6.3,    6.7,    2.7,    3.0,   -1.2,    1.2,   -8.4,  999.0,  999.0,  999.0,  999.0,  999.0,  999.0,  999.0,  999.0,  999.0,  999.0,   -1.3,   -1.3,  999.0,  999.0,  999.0,  999.0,  999.0,  999.0,  999.0,  999.0,  999.0,  999.0,  999.0,  999.0,  999.0,  999.0,  999.0,    1.5,  999.0,  999.0,  999.0,  999.0,  999.0,  999.0,  999.0,  999.0,  999.0,  999.0
2000/12/02 20:40,  999.0,    1.7,  999.0,   -0.9,   -0.2,    3.9,    2.2,    2.9,   -1.8,   -0.6,    9.9,   14.7,   12.2,    9.7,    5.6,    1.6,    1.2,   -1.2,  999.0,  999.0,  999.0,  999.0,  999.0,  999.0,  999.0,  999.0,  999.0,  999.0,  999.0,  999.0,  999.0,  999.0,  999.0,  999.0,  999.0,  999.0,  999.0,  999.0,  999.0,  999.0,  999.0,  999.0,  999.0,  999.0,  999.0,  999.0,  999.0,  999.0,  999.0,  999.0,  999.0,  999.0,  999.0,  999.0,  999.0,  999.0,  999.0,  999.0
2000/12/02 20:50,  999.0,    0.5,   -1.6,   -0.2,    2.6,  999.0,    5.7,    4.0,    1.0,  999.0,    7.9,   10.7,   13.1,   11.7,  999.0,   -1.3,    3.8,    0.1,  999.0,  999.0,  999.0,  999.0,    5.5,  999.0,  999.0,  999.0,  999.0,  999.0,  999.0,  999.0,  999.0,  999.0,  999.0,  999.0,  999.0,  999.0,  999.0,  999.0,  999.0,  999.0,  999.0,  999.0,  999.0,  999.0,  999.0,  999.0,  999.0,  999.0,  999.0,  999.0,  999.0,  999.0,  999.0,  999.0,  999.0,  999.0,  999.0,  999.0
2000/12/02 21:00,  999.0,   -1.4,   -0.0,   -1.0,    2.0,    8.5,    6.0,    4.9,    0.4,    2.8,    1.2,  999.0,    5.1,   10.3,  999.0,    7.8,    1.0,   -2.7,   -0.2,  999.0,  999.0,  999.0,  999.0,  999.0,  999.0,  999.0,  999.0,  999.0,  999.0,  999.0,  999.0,  999.0,  999.0,  999.0,  999.0,  999.0,  999.0,  999.0,  999.0,  999.0,  999.0,  999.0,  999.0,  999.0,  999.0,  999.0,  999.0,  999.0,  999.0,  999.0,  999.0,  999.0,  999.0,  999.0,  999.0,  999.0,  999.0,  999.0
2000/12/02 21:10,  999.0,    4.1,    3.5,    2.0,    5.7,    3.7,  999.0,  999.0,    4.5,   10.7,  999.0,   10.3,    7.9,    7.2,    7.9,    6.3,  999.0,  999.0,  999.0,  999.0,  999.0,  999.0,  999.0,  999.0,  999.0,  999.0,  999.0,  999.0,  999.0,  999.0,  999.0,  999.0,  999.0,  999.0,  999.0,  999.0,  999.0,  999.0,  999.0,  999.0,  999.0,  999.0,  999.0,  999.0,  999.0,  999.0,  999.0,  999.0,  999.0,  999.0,  999.0,  999.0,  999.0,  999.0,  999.0,  999.0,  999.0,  999.0
2000/12/02 21:20,  999.0,  999.0,  999.0,    8.4,  999.0,  999.0,    8.6,    6.3,  999.0,  999.0,   10.0,   11.3,   12.0,    8.7,    6.8,    5.1,    3.8,  999.0,   -1.5,   -0.8,  999.0,  999.0,  999.0,  999.0,  999.0,  -23.0,  999.0,  -24.4,  -20.2,  999.0,  999.0,  999.0,  999.0,  -33.7,  -32.4,  -34.0,  -34.5,  999.0,  999.0,  999.0,  999.0,  999.0,  -40.6,  999.0,  999.0,  999.0,  999.0,  -40.7,  -41.8,  999.0,  -42.6,  -41.3,  999.0,  999.0,  -41.6,  -41.3,  999.0,  -42.2
2000/12/02 21:30,  999.0,  999.0,    1.1,   -0.1,   10.1,    4.6,    5.5,   -0.1,    2.9,  999.0,  999.0,    3.8,    8.7,    6.3,    5.8,    5.0,    3.8,    2.1,  999.0,  999.0,    0.9,  999.0,  999.0,  999.0,  999.0,  999.0,  999.0,  999.0,  999.0,  999.0,  999.0,  999.0,  999.0,  999.0,  999.0,  999.0,  999.0,  999.0,  999.0,  999.0,  999.0,  -39.4,  -39.5,  999.0,  -41.6,  999.0,  999.0,  999.0,  999.0,  999.0,  -42.0,  -42.2,  -41.9,  999.0,  999.0,  999.0,  999.0,  999.0
2000/12/02 21:40,  999.0,    3.4,    0.3,    1.2,  999.0,    7.7,    5.5,    7.3,    5.3,  999.0,   14.6,   12.5,   12.7,    9.2,  999.0,  999.0,    1.1,  999.0,  999.0,  999.0,  999.0,  999.0,  999.0,  999.0,  999.0,  999.0,  999.0,  999.0,  999.0,  999.0,  999.0,  999.0,  999.0,  999.0,  999.0,  999.0,  999.0,  999.0,  999.0,  999.0,  999.0,  999.0,  999.0,  999.0,  999.0,  999.0,  999.0,  999.0,  999.0,  999.0,  999.0,  999.0,  999.0,  999.0,  999.0,  999.0,  999.0,  999.0
2000/12/02 21:50,  999.0,    1.3,   -0.0,    4.7,    8.1,  999.0,  999.0,  999.0,    0.3,  999.0,    2.6,   12.4,   13.1,  999.0,  999.0,  999.0,  999.0,  999.0,  999.0,  999.0,  999.0,  999.0,  999.0,  999.0,  999.0,  999.0,  999.0,  999.0,  999.0,  999.0,  999.0,  999.0,  999.0,  999.0,  999.0,  999.0,  999.0,  999.0,  999.0,  999.0,  999.0,  999.0,   36.1,  999.0,   36.8,  999.0,  999.0,  999.0,  999.0,  999.0,  999.0,  999.0,  999.0,  999.0,  999.0,  999.0,  999.0,  999.0
2000/12/02 22:00,  999.0,  999.0,  999.0,    7.9,   14.7,   12.8,   13.9,   10.5,  999.0,  999.0,   11.5,   12.3,   11.4,    9.4,  999.0,  999.0,    0.1,  999.0,  999.0,  999.0,  999.0,  999.0,  999.0,  999.0,  999.0,  999.0,  999.0,  999.0,  999.0,  999.0,  999.0,  999.0,  999.0,  999.0,   10.9,   10.1,  999.0,  999.0,    8.4,  999.0,  999.0,    7.4,  999.0,    6.2,    5.7,  999.0,  999.0,  999.0,    3.6,  999.0,  999.0,  999.0,  999.0,  999.0,    1.3,  999.0,  999.0,  999.0
2000/12/02 22:10,  999.0,  999.0,   11.3,  999.0,  999.0,  999.0,   12.9,    6.8,    8.0,    7.1,   11.6,    4.4,    1.7,    0.6,    2.0,  999.0,  999.0,  999.0,  999.0,  999.0,  999.0,  999.0,  999.0,   14.5,    1.1,  999.0,  999.0,  999.0,  999.0,  999.0,  999.0,   10.3,    9.4,  999.0,    8.2,  999.0,  999.0,  999.0,    5.7,    5.4,  999.0,  999.0,  999.0,  999.0,    2.4,  999.0,  999.0,  999.0,  999.0,  999.0,    0.8,  999.0,    1.7,  999.0,    1.2,  999.0,  999.0,    1.4
2000/12/02 22:20,  999.0,  999.0,    7.8,  999.0,  999.0,    3.8,    3.5,  999.0,    9.9,   15.8,    0.2,    2.2,    2.4,    0.9,    1.0,    2.2,    5.7,    1.4,  999.0,  999.0,  999.0,  999.0,  999.0,  999.0,  999.0,  999.0,  999.0,  999.0,  999.0,  999.0,  999.0,  999.0,  999.0,  999.0,  999.0,  999.0,  999.0,  999.0,  999.0,  999.0,  999.0,  999.0,  999.0,  999.0,  999.0,  999.0,  999.0,  999.0,  999.0,  999.0,  999.0,  999.0,  999.0,  999.0,  999.0,  999.0,  999.0,  999.0
2000/12/02 22:30,  999.0,    7.8,   10.5,   11.5,   14.7,  999.0,  999.0,  999.0,  999.0,   13.1,  999.0,    4.9,    2.7,    0.3,    3.5,    1.8,    0.7,    3.5,  999.0,  999.0,  999.0,  999.0,  999.0,  999.0,  999.0,  999.0,  999.0,  999.0,  999.0,  999.0,  999.0,  999.0,  999.0,  -20.6,  999.0,  999.0,  999.0,  999.0,  999.0,  999.0,  999.0,  999.0,  999.0,  999.0,  999.0,  999.0,  999.0,   -0.4,  999.0,  999.0,  999.0,  -11.1,  999.0,  999.0,  999.0,  999.0,  -11.4,  999.0
2000/12/02 22:40,  999.0,   10.2,   10.1,  999.0,    7.3,  999.0,  999.0,  999.0,  999.0,  999.0,    6.8,    7.4,    8.3,    3.4,   -0.8,    1.2,    3.6,    5.2,    7.8,    9.2,   14.4,  999.0,  999.0,  999.0,  999.0,  999.0,  999.0,  999.0,  999.0,  999.0,  999.0,  999.0,  999.0,  999.0,  999.0,  999.0,  999.0,  999.0,  999.0,  999.0,  999.0,  999.0,  999.0,   -1.1,  999.0,   -0.6,  999.0,  999.0,  999.0,  999.0,  999.0,   -0.2,  999.0,  999.0,  999.0,  999.0,   -0.2,  999.0
2000/12/02 22:50,  999.0,  999.0,    5.9,   10.0,   10.5,  999.0,  999.0,  999.0,  999.0,    6.8,    4.6,    6.2,    4.3,    2.0,    1.6,    5.0,    3.6,    4.9,    1.0,    1.5,  999.0,  999.0,  999.0,  999.0,  999.0,  999.0,  999.0,  999.0,  999.0,  999.0,  999.0,  999.0,  999.0,  999.0,  999.0,  999.0,  999.0,  999.0,  999.0,  999.0,   -0.4,  999.0,   -0.6,   -0.8,   -0.9,   -0.8,   -0.3,   -1.3,  999.0,   -0.7,  999.0,   -0.6,   -0.2,   -0.7,    0.3,  999.0,   -1.0,   -1.0
2000/12/02 23:00,  999.0,    8.4,    9.1,    9.8,   11.9,    6.9,   12.5,  999.0,    0.1,    6.1,   10.8,   10.1,    7.1,    5.9,    4.4,    5.2,    4.6,    3.0,    3.9,    0.9,  999.0,  999.0,  999.0,  999.0,  999.0,  999.0,  999.0,  999.0,  999.0,  999.0,  999.0,  999.0,  999.0,   -0.7,  999.0,  999.0,   -0.8,  999.0,  999.0,   -1.1,   -0.6,   -0.7,   -0.7,   -0.9,   -1.0,   -0.8,    0.0,   -1.0,  999.0,   -0.7,  999.0,   -0.8,   -0.6,   -1.4,   -0.6,   -0.4,   -0.8,   -0.7
2000/12/02 23:10,  999.0,    5.9,    8.6,   14.1,   14.4,  999.0,  999.0,  999.0,    9.6,   14.6,    8.2,   10.8,    9.0,    8.6,    7.5,    8.2,    7.2,  999.0,    0.1,    3.7,  999.0,  999.0,  999.0,  999.0,  999.0,  999.0,  999.0,  999.0,  999.0,  999.0,  999.0,  999.0,  999.0,  999.0,   -0.9,  999.0,   -0.2,   -1.0,  999.0,   -1.1,   -0.6,   -0.8,   -0.7,    0.2,   -0.3,   -0.9,   -0.4,   -0.8,   -0.1,  999.0,  999.0,   -0.8,   -0.2,   -1.9,   -0.8,   -0.5,   -0.9,   -0.5
2000/12/02 23:20,  999.0,    2.3,    4.4,    8.2,  999.0,  999.0,    1.8,    1.2,    0.1,  999.0,    6.0,    7.9,    8.5,    8.6,    5.9,    6.2,    7.0,   10.7,  999.0,  999.0,   10.2,  999.0,  999.0,  999.0,  999.0,  999.0,  999.0,  999.0,  999.0,  999.0,  999.0,  999.0,  999.0,   -0.4,   -0.8,  999.0,   -0.7,    0.0,   -0.3,   -0.2,   -1.0,   -0.7,   -0.4,   -0.6,   -0.9,   -1.2,   -0.9,   -0.0,   -1.8,   -1.3,   -0.9,   -1.0,   -1.0,   -0.4,    0.3,   -0.5,   -0.2,   -0.5
2000/12/02 23:30,  999.0,    3.7,    5.6,    1.3,    0.5,  999.0,   -0.2,    4.1,    2.7,    8.6,    6.3,  999.0,   11.9,   10.6,    8.8,    7.7,    7.8,    9.5,  999.0,  999.0,  999.0,  999.0,  999.0,  999.0,  999.0,  999.0,  999.0,  999.0,  999.0,  999.0,  999.0,  999.0,  999.0,  999.0,   -0.4,   -1.1,   -0.6,   -0.2,   -0.6,   -0.5,   -0.4,  999.0,   -0.6,   -0.5,   -0.7,   -1.2,   -0.9,   -0.5,  999.0,  999.0,   -0.7,   -0.1,   -0.2,   -1.8,   -0.9,   -1.0,  999.0,   -1.2
2000/12/02 23:40,  999.0,  999.0,    2.7,    1.7,  999.0,  999.0,  999.0,  999.0,  999.0,    8.1,    7.5,    4.0,    7.4,   10.5,   10.1,    7.5,    6.6,    5.7,  999.0,  999.0,  999.0,  999.0,  999.0,  999.0,  999.0,  999.0,  999.0,  999.0,  999.0,  999.0,  999.0,  999.0,  999.0,  999.0,   -1.0,   -1.2,   -1.2,   -0.9,   -1.0,  999.0,   -1.3,   -1.0,   -0.9,   -0.8,   -0.8,    0.2,   -0.1,  999.0,   -0.9,   -0.7,   -0.6,   -1.0,   -0.0,   -0.4,   -1.0,   -0.7,   -0.7,   -1.0
2000/12/02 23:50,  999.0,  999.0,  999.0,  999.0,  999.0,   16.9,  999.0,   10.3,  999.0,    9.8,  999.0,    3.7,    9.1,    9.9,    9.6,    9.9,    6.6,  999.0,  999.0,  999.0,  999.0,  999.0,  999.0,  999.0,  999.0,  999.0,    6.1,  999.0,  999.0,  999.0,  999.0,  999.0,  999.0,  999.0,   -3.1,   -3.0,   -2.3,   -0.7,   -0.8,  999.0,   -0.6,   -0.9,   -0.7,   -0.7,  999.0,   -1.1,   -0.7,   -1.0,  999.0,   -1.7,   -0.6,   -0.2,   -0.4,   -1.1,   -1.2,   -0.5,   -0.7,   -0.8
